| State | Missouri | Latest | Good (606 cfs) | |
| River | Gasconade River | Rating | Observed | Estimated |
| Updated | 2026-05-10 8:15 (1 hour ago) | Flood - The river is flooding. Obstacles can be treacherous or deadly. The river should be avoided at this stage for casual trips and definitely for the inexperienced. Trips should be attempted only with protective gear and equipment.Flood | (none) | 4809 |
| Discharge | 606 cfs (median: 962 cfs) | High - The river is high and potentially dangerous, especially for the young and / or inexperienced. Normal stream obstacles are sometimes difficult to navigate. Extended distances can be attempted, but canoe travel may not be advisable.High | 1000 | 943 |
| Height | 2.03 feet | Good - Conditions are ideal for a canoe or kayak. Boats typically will drag on fewer than one-quarter of riffles, if at all, and portages are unnecessary or rare. Normal float lengths can be attempted without a problem.Good | 200 | 494 |
| Trend | Steady (falling over 24 hours) | Low - River is low but can still be floated. Some riffles are okay but most come with significant dragging and might need a portage. Float lengths should be reduced to accommodate low flow, dragging, and portages.Low | 100 | 226 |
| USGS | USGS Site ( Duck Duck Go Maps) | Poor - River is too low to float comfortably. Most or all riffles will drag or must be portaged and some obstacles (such as slick shelf rock) cause undue problems. Avoid the river at this stage for casual paddling trips.Poor | (none) | 56 |
A total of 9 rows are displayed.
| Miles | 45.6 |
| Trips | 8 |
| People | 22 |
| Dates | 9 |
| Years | 7 |
| Months | 7 |
| Rows | 9 |
| Sources | 3 |
BLG - Bluegill
CCF - Channel Catfish
CP - Chain Pickerel
FWD - Freshwater Drum
GSF - Green Sunfish
KSB - Kentucky Spotted Bass
LMB - Largemouth Bass
LSF - Longear Sunfish
RB - Rock Bass / Goggle Eye
RSF - Redear Sunfish
RT - Rainbow Trout
SMB - Smallmouth Bass
WB - White Bass
WF - Whitefish
WL - WalleyeThe classic River Trips application is still available for use. It is updated with the new system using a data retrofit. It is no longer maintained. The original River Trips application is no longer updated (as of 1 Dec 2016) but can be checked for errors or for the condition of the data before it was converted to the new system.
| Observation | Height | Discharge | Maximum Discharge | Minimum Discharge | Mean Discharge | P05 | P10 | P20 | P25 | P50 (Median) | P75 | P80 | P90 | P95 |
|---|---|---|---|---|---|---|---|---|---|---|---|---|---|---|
| 2026-05-10 08:15 | 2.03 | 606 | 23200 (1961) | 169 (2001) | 2140 | 179 | 238 | 387 | 458 | 962 | 1830 | 2640 | 3970 | 9230 |
| 2026-05-10 07:15 | 2.03 | 606 | 23200 (1961) | 169 (2001) | 2140 | 179 | 238 | 387 | 458 | 962 | 1830 | 2640 | 3970 | 9230 |
| 2026-05-10 06:15 | 2.02 | 602 | 23200 (1961) | 169 (2001) | 2140 | 179 | 238 | 387 | 458 | 962 | 1830 | 2640 | 3970 | 9230 |
| 2026-05-10 05:15 | 2.05 | 616 | 23200 (1961) | 169 (2001) | 2140 | 179 | 238 | 387 | 458 | 962 | 1830 | 2640 | 3970 | 9230 |
| 2026-05-10 04:15 | 2.04 | 611 | 23200 (1961) | 169 (2001) | 2140 | 179 | 238 | 387 | 458 | 962 | 1830 | 2640 | 3970 | 9230 |
| 2026-05-10 03:15 | 2.04 | 611 | 23200 (1961) | 169 (2001) | 2140 | 179 | 238 | 387 | 458 | 962 | 1830 | 2640 | 3970 | 9230 |
| 2026-05-10 02:15 | 2.05 | 616 | 23200 (1961) | 169 (2001) | 2140 | 179 | 238 | 387 | 458 | 962 | 1830 | 2640 | 3970 | 9230 |
| 2026-05-10 01:15 | 2.05 | 616 | 23200 (1961) | 169 (2001) | 2140 | 179 | 238 | 387 | 458 | 962 | 1830 | 2640 | 3970 | 9230 |
| 2026-05-10 00:15 | 2.05 | 616 | 23200 (1961) | 169 (2001) | 2140 | 179 | 238 | 387 | 458 | 962 | 1830 | 2640 | 3970 | 9230 |
| 2026-05-09 23:15 | 2.06 | 621 | 23200 (1961) | 169 (2001) | 2140 | 179 | 238 | 387 | 458 | 962 | 1830 | 2640 | 3970 | 9230 |
| 2026-05-09 22:15 | 2.06 | 621 | 37800 (2002) | 147 (1955) | 2630 | 198 | 248 | 379 | 478 | 1020 | 1860 | 2310 | 5100 | 8870 |
| 2026-05-09 21:15 | 2.06 | 621 | 37800 (2002) | 147 (1955) | 2630 | 198 | 248 | 379 | 478 | 1020 | 1860 | 2310 | 5100 | 8870 |
| 2026-05-09 20:15 | 2.08 | 631 | 37800 (2002) | 147 (1955) | 2630 | 198 | 248 | 379 | 478 | 1020 | 1860 | 2310 | 5100 | 8870 |
| 2026-05-09 19:15 | 2.08 | 631 | 37800 (2002) | 147 (1955) | 2630 | 198 | 248 | 379 | 478 | 1020 | 1860 | 2310 | 5100 | 8870 |
| 2026-05-09 18:15 | 2.09 | 636 | 37800 (2002) | 147 (1955) | 2630 | 198 | 248 | 379 | 478 | 1020 | 1860 | 2310 | 5100 | 8870 |
| 2026-05-09 17:15 | 2.12 | 651 | 37800 (2002) | 147 (1955) | 2630 | 198 | 248 | 379 | 478 | 1020 | 1860 | 2310 | 5100 | 8870 |
| 2026-05-09 16:15 | 2.12 | 651 | 37800 (2002) | 147 (1955) | 2630 | 198 | 248 | 379 | 478 | 1020 | 1860 | 2310 | 5100 | 8870 |
| 2026-05-09 15:15 | 2.13 | 656 | 37800 (2002) | 147 (1955) | 2630 | 198 | 248 | 379 | 478 | 1020 | 1860 | 2310 | 5100 | 8870 |
| 2026-05-09 14:15 | 2.13 | 656 | 37800 (2002) | 147 (1955) | 2630 | 198 | 248 | 379 | 478 | 1020 | 1860 | 2310 | 5100 | 8870 |
| 2026-05-09 13:15 | 2.13 | 656 | 37800 (2002) | 147 (1955) | 2630 | 198 | 248 | 379 | 478 | 1020 | 1860 | 2310 | 5100 | 8870 |
| 2026-05-09 12:15 | 2.14 | 661 | 37800 (2002) | 147 (1955) | 2630 | 198 | 248 | 379 | 478 | 1020 | 1860 | 2310 | 5100 | 8870 |
| 2026-05-09 11:15 | 2.14 | 661 | 37800 (2002) | 147 (1955) | 2630 | 198 | 248 | 379 | 478 | 1020 | 1860 | 2310 | 5100 | 8870 |
| 2026-05-09 10:15 | 2.15 | 666 | 37800 (2002) | 147 (1955) | 2630 | 198 | 248 | 379 | 478 | 1020 | 1860 | 2310 | 5100 | 8870 |
| 2026-05-09 09:15 | 2.15 | 666 | 37800 (2002) | 147 (1955) | 2630 | 198 | 248 | 379 | 478 | 1020 | 1860 | 2310 | 5100 | 8870 |
| 2026-05-09 08:15 | 2.15 | 666 | 37800 (2002) | 147 (1955) | 2630 | 198 | 248 | 379 | 478 | 1020 | 1860 | 2310 | 5100 | 8870 |
| 2026-05-09 07:15 | 2.17 | 677 | 37800 (2002) | 147 (1955) | 2630 | 198 | 248 | 379 | 478 | 1020 | 1860 | 2310 | 5100 | 8870 |
| 2026-05-09 06:15 | 2.17 | 677 | 37800 (2002) | 147 (1955) | 2630 | 198 | 248 | 379 | 478 | 1020 | 1860 | 2310 | 5100 | 8870 |
| 2026-05-09 05:15 | 2.18 | 682 | 37800 (2002) | 147 (1955) | 2630 | 198 | 248 | 379 | 478 | 1020 | 1860 | 2310 | 5100 | 8870 |
| 2026-05-09 04:15 | 2.19 | 687 | 37800 (2002) | 147 (1955) | 2630 | 198 | 248 | 379 | 478 | 1020 | 1860 | 2310 | 5100 | 8870 |
| 2026-05-09 03:15 | 2.20 | 692 | 37800 (2002) | 147 (1955) | 2630 | 198 | 248 | 379 | 478 | 1020 | 1860 | 2310 | 5100 | 8870 |
| 2026-05-09 02:15 | 2.20 | 692 | 37800 (2002) | 147 (1955) | 2630 | 198 | 248 | 379 | 478 | 1020 | 1860 | 2310 | 5100 | 8870 |
| 2026-05-09 01:15 | 2.21 | 697 | 37800 (2002) | 147 (1955) | 2630 | 198 | 248 | 379 | 478 | 1020 | 1860 | 2310 | 5100 | 8870 |
| 2026-05-09 00:15 | 2.23 | 708 | 37800 (2002) | 147 (1955) | 2630 | 198 | 248 | 379 | 478 | 1020 | 1860 | 2310 | 5100 | 8870 |
| 2026-05-08 23:15 | 2.23 | 708 | 37800 (2002) | 147 (1955) | 2630 | 198 | 248 | 379 | 478 | 1020 | 1860 | 2310 | 5100 | 8870 |
| 2026-05-08 22:15 | 2.22 | 702 | 24500 (1961) | 153 (1955) | 2300 | 216 | 259 | 393 | 491 | 994 | 2060 | 2790 | 5650 | 11200 |
| 2026-05-08 21:15 | 2.20 | 692 | 24500 (1961) | 153 (1955) | 2300 | 216 | 259 | 393 | 491 | 994 | 2060 | 2790 | 5650 | 11200 |
| 2026-05-08 20:15 | 2.17 | 677 | 24500 (1961) | 153 (1955) | 2300 | 216 | 259 | 393 | 491 | 994 | 2060 | 2790 | 5650 | 11200 |
| 2026-05-08 19:15 | 2.20 | 692 | 24500 (1961) | 153 (1955) | 2300 | 216 | 259 | 393 | 491 | 994 | 2060 | 2790 | 5650 | 11200 |
| 2026-05-08 18:15 | 2.20 | 692 | 24500 (1961) | 153 (1955) | 2300 | 216 | 259 | 393 | 491 | 994 | 2060 | 2790 | 5650 | 11200 |
| 2026-05-08 17:15 | 2.21 | 697 | 24500 (1961) | 153 (1955) | 2300 | 216 | 259 | 393 | 491 | 994 | 2060 | 2790 | 5650 | 11200 |
| 2026-05-08 16:15 | 2.21 | 697 | 24500 (1961) | 153 (1955) | 2300 | 216 | 259 | 393 | 491 | 994 | 2060 | 2790 | 5650 | 11200 |
| 2026-05-08 15:15 | 2.23 | 708 | 24500 (1961) | 153 (1955) | 2300 | 216 | 259 | 393 | 491 | 994 | 2060 | 2790 | 5650 | 11200 |
| 2026-05-08 14:15 | 2.23 | 708 | 24500 (1961) | 153 (1955) | 2300 | 216 | 259 | 393 | 491 | 994 | 2060 | 2790 | 5650 | 11200 |
| 2026-05-08 13:15 | 2.24 | 713 | 24500 (1961) | 153 (1955) | 2300 | 216 | 259 | 393 | 491 | 994 | 2060 | 2790 | 5650 | 11200 |
| 2026-05-08 12:15 | 2.25 | 718 | 24500 (1961) | 153 (1955) | 2300 | 216 | 259 | 393 | 491 | 994 | 2060 | 2790 | 5650 | 11200 |
| 2026-05-08 11:15 | 2.26 | 724 | 24500 (1961) | 153 (1955) | 2300 | 216 | 259 | 393 | 491 | 994 | 2060 | 2790 | 5650 | 11200 |
| 2026-05-08 10:15 | 2.27 | 729 | 24500 (1961) | 153 (1955) | 2300 | 216 | 259 | 393 | 491 | 994 | 2060 | 2790 | 5650 | 11200 |
| 2026-05-08 09:15 | 2.28 | 734 | 24500 (1961) | 153 (1955) | 2300 | 216 | 259 | 393 | 491 | 994 | 2060 | 2790 | 5650 | 11200 |
| 2026-05-08 08:15 | 2.27 | 729 | 24500 (1961) | 153 (1955) | 2300 | 216 | 259 | 393 | 491 | 994 | 2060 | 2790 | 5650 | 11200 |
| 2026-05-08 07:15 | 2.28 | 734 | 24500 (1961) | 153 (1955) | 2300 | 216 | 259 | 393 | 491 | 994 | 2060 | 2790 | 5650 | 11200 |
| 2026-05-08 06:15 | 2.28 | 734 | 24500 (1961) | 153 (1955) | 2300 | 216 | 259 | 393 | 491 | 994 | 2060 | 2790 | 5650 | 11200 |
| 2026-05-08 05:15 | 2.29 | 740 | 24500 (1961) | 153 (1955) | 2300 | 216 | 259 | 393 | 491 | 994 | 2060 | 2790 | 5650 | 11200 |
| 2026-05-08 04:15 | 2.31 | 750 | 24500 (1961) | 153 (1955) | 2300 | 216 | 259 | 393 | 491 | 994 | 2060 | 2790 | 5650 | 11200 |
| 2026-05-08 03:15 | 2.30 | 745 | 24500 (1961) | 153 (1955) | 2300 | 216 | 259 | 393 | 491 | 994 | 2060 | 2790 | 5650 | 11200 |
| 2026-05-08 02:15 | 2.32 | 756 | 24500 (1961) | 153 (1955) | 2300 | 216 | 259 | 393 | 491 | 994 | 2060 | 2790 | 5650 | 11200 |
| 2026-05-08 01:15 | 2.32 | 756 | 24500 (1961) | 153 (1955) | 2300 | 216 | 259 | 393 | 491 | 994 | 2060 | 2790 | 5650 | 11200 |
| 2026-05-08 00:15 | 2.33 | 761 | 24500 (1961) | 153 (1955) | 2300 | 216 | 259 | 393 | 491 | 994 | 2060 | 2790 | 5650 | 11200 |
| 2026-05-07 23:15 | 2.34 | 766 | 24500 (1961) | 153 (1955) | 2300 | 216 | 259 | 393 | 491 | 994 | 2060 | 2790 | 5650 | 11200 |
| 2026-05-07 22:15 | 2.34 | 766 | 26900 (2022) | 158 (1955) | 2130 | 232 | 274 | 388 | 466 | 1080 | 2050 | 2540 | 4150 | 8810 |
| 2026-05-07 21:15 | 2.34 | 766 | 26900 (2022) | 158 (1955) | 2130 | 232 | 274 | 388 | 466 | 1080 | 2050 | 2540 | 4150 | 8810 |
| 2026-05-07 20:15 | 2.34 | 766 | 26900 (2022) | 158 (1955) | 2130 | 232 | 274 | 388 | 466 | 1080 | 2050 | 2540 | 4150 | 8810 |
| 2026-05-07 19:15 | 2.36 | 777 | 26900 (2022) | 158 (1955) | 2130 | 232 | 274 | 388 | 466 | 1080 | 2050 | 2540 | 4150 | 8810 |
| 2026-05-07 18:15 | 2.38 | 788 | 26900 (2022) | 158 (1955) | 2130 | 232 | 274 | 388 | 466 | 1080 | 2050 | 2540 | 4150 | 8810 |
| 2026-05-07 17:15 | 2.37 | 783 | 26900 (2022) | 158 (1955) | 2130 | 232 | 274 | 388 | 466 | 1080 | 2050 | 2540 | 4150 | 8810 |
| 2026-05-07 16:15 | 2.40 | 799 | 26900 (2022) | 158 (1955) | 2130 | 232 | 274 | 388 | 466 | 1080 | 2050 | 2540 | 4150 | 8810 |
| 2026-05-07 15:15 | 2.40 | 799 | 26900 (2022) | 158 (1955) | 2130 | 232 | 274 | 388 | 466 | 1080 | 2050 | 2540 | 4150 | 8810 |
| 2026-05-07 14:15 | 2.41 | 805 | 26900 (2022) | 158 (1955) | 2130 | 232 | 274 | 388 | 466 | 1080 | 2050 | 2540 | 4150 | 8810 |
| 2026-05-07 13:15 | 2.42 | 811 | 26900 (2022) | 158 (1955) | 2130 | 232 | 274 | 388 | 466 | 1080 | 2050 | 2540 | 4150 | 8810 |
| 2026-05-07 12:15 | 2.43 | 816 | 26900 (2022) | 158 (1955) | 2130 | 232 | 274 | 388 | 466 | 1080 | 2050 | 2540 | 4150 | 8810 |
| 2026-05-07 11:15 | 2.42 | 811 | 26900 (2022) | 158 (1955) | 2130 | 232 | 274 | 388 | 466 | 1080 | 2050 | 2540 | 4150 | 8810 |
| 2026-05-07 10:15 | 2.43 | 816 | 26900 (2022) | 158 (1955) | 2130 | 232 | 274 | 388 | 466 | 1080 | 2050 | 2540 | 4150 | 8810 |
| 2026-05-07 09:15 | 2.44 | 822 | 26900 (2022) | 158 (1955) | 2130 | 232 | 274 | 388 | 466 | 1080 | 2050 | 2540 | 4150 | 8810 |
| 2026-05-07 08:15 | 2.45 | 827 | 26900 (2022) | 158 (1955) | 2130 | 232 | 274 | 388 | 466 | 1080 | 2050 | 2540 | 4150 | 8810 |
| 2026-05-07 07:15 | 2.46 | 833 | 26900 (2022) | 158 (1955) | 2130 | 232 | 274 | 388 | 466 | 1080 | 2050 | 2540 | 4150 | 8810 |
| 2026-05-07 06:15 | 2.48 | 844 | 26900 (2022) | 158 (1955) | 2130 | 232 | 274 | 388 | 466 | 1080 | 2050 | 2540 | 4150 | 8810 |
| 2026-05-07 05:15 | 2.48 | 844 | 26900 (2022) | 158 (1955) | 2130 | 232 | 274 | 388 | 466 | 1080 | 2050 | 2540 | 4150 | 8810 |
| 2026-05-07 04:15 | 2.48 | 844 | 26900 (2022) | 158 (1955) | 2130 | 232 | 274 | 388 | 466 | 1080 | 2050 | 2540 | 4150 | 8810 |
| 2026-05-07 03:15 | 2.50 | 856 | 26900 (2022) | 158 (1955) | 2130 | 232 | 274 | 388 | 466 | 1080 | 2050 | 2540 | 4150 | 8810 |
| 2026-05-07 02:15 | 2.50 | 856 | 26900 (2022) | 158 (1955) | 2130 | 232 | 274 | 388 | 466 | 1080 | 2050 | 2540 | 4150 | 8810 |
| 2026-05-07 01:15 | 2.50 | 856 | 26900 (2022) | 158 (1955) | 2130 | 232 | 274 | 388 | 466 | 1080 | 2050 | 2540 | 4150 | 8810 |
| 2026-05-07 00:15 | 2.51 | 862 | 26900 (2022) | 158 (1955) | 2130 | 232 | 274 | 388 | 466 | 1080 | 2050 | 2540 | 4150 | 8810 |
| 2026-05-06 23:15 | 2.52 | 867 | 26900 (2022) | 158 (1955) | 2130 | 232 | 274 | 388 | 466 | 1080 | 2050 | 2540 | 4150 | 8810 |
| 2026-05-06 22:15 | 2.54 | 879 | 37800 (2022) | 164 (1955) | 2430 | 237 | 289 | 395 | 466 | 1110 | 1950 | 2190 | 4700 | 11800 |
| 2026-05-06 21:15 | 2.53 | 873 | 37800 (2022) | 164 (1955) | 2430 | 237 | 289 | 395 | 466 | 1110 | 1950 | 2190 | 4700 | 11800 |
| 2026-05-06 20:15 | 2.55 | 885 | 37800 (2022) | 164 (1955) | 2430 | 237 | 289 | 395 | 466 | 1110 | 1950 | 2190 | 4700 | 11800 |
| 2026-05-06 19:15 | 2.56 | 891 | 37800 (2022) | 164 (1955) | 2430 | 237 | 289 | 395 | 466 | 1110 | 1950 | 2190 | 4700 | 11800 |
| 2026-05-06 18:15 | 2.58 | 902 | 37800 (2022) | 164 (1955) | 2430 | 237 | 289 | 395 | 466 | 1110 | 1950 | 2190 | 4700 | 11800 |
| 2026-05-06 17:15 | 2.60 | 914 | 37800 (2022) | 164 (1955) | 2430 | 237 | 289 | 395 | 466 | 1110 | 1950 | 2190 | 4700 | 11800 |
| 2026-05-06 16:15 | 2.62 | 926 | 37800 (2022) | 164 (1955) | 2430 | 237 | 289 | 395 | 466 | 1110 | 1950 | 2190 | 4700 | 11800 |
| 2026-05-06 15:15 | 2.64 | 938 | 37800 (2022) | 164 (1955) | 2430 | 237 | 289 | 395 | 466 | 1110 | 1950 | 2190 | 4700 | 11800 |
| 2026-05-06 14:15 | 2.64 | 938 | 37800 (2022) | 164 (1955) | 2430 | 237 | 289 | 395 | 466 | 1110 | 1950 | 2190 | 4700 | 11800 |
| 2026-05-06 13:15 | 2.64 | 938 | 37800 (2022) | 164 (1955) | 2430 | 237 | 289 | 395 | 466 | 1110 | 1950 | 2190 | 4700 | 11800 |
| 2026-05-06 12:15 | 2.66 | 950 | 37800 (2022) | 164 (1955) | 2430 | 237 | 289 | 395 | 466 | 1110 | 1950 | 2190 | 4700 | 11800 |
| 2026-05-06 11:15 | 2.66 | 950 | 37800 (2022) | 164 (1955) | 2430 | 237 | 289 | 395 | 466 | 1110 | 1950 | 2190 | 4700 | 11800 |
| 2026-05-06 10:15 | 2.66 | 950 | 37800 (2022) | 164 (1955) | 2430 | 237 | 289 | 395 | 466 | 1110 | 1950 | 2190 | 4700 | 11800 |
| 2026-05-06 09:15 | 2.68 | 962 | 37800 (2022) | 164 (1955) | 2430 | 237 | 289 | 395 | 466 | 1110 | 1950 | 2190 | 4700 | 11800 |
| 2026-05-06 08:15 | 2.68 | 962 | 37800 (2022) | 164 (1955) | 2430 | 237 | 289 | 395 | 466 | 1110 | 1950 | 2190 | 4700 | 11800 |
| 2026-05-06 07:15 | 2.69 | 968 | 37800 (2022) | 164 (1955) | 2430 | 237 | 289 | 395 | 466 | 1110 | 1950 | 2190 | 4700 | 11800 |
| 2026-05-06 06:15 | 2.69 | 968 | 37800 (2022) | 164 (1955) | 2430 | 237 | 289 | 395 | 466 | 1110 | 1950 | 2190 | 4700 | 11800 |
| 2026-05-06 05:15 | 2.70 | 974 | 37800 (2022) | 164 (1955) | 2430 | 237 | 289 | 395 | 466 | 1110 | 1950 | 2190 | 4700 | 11800 |
| 2026-05-06 04:15 | 2.71 | 980 | 37800 (2022) | 164 (1955) | 2430 | 237 | 289 | 395 | 466 | 1110 | 1950 | 2190 | 4700 | 11800 |
| 2026-05-06 03:15 | 2.73 | 992 | 37800 (2022) | 164 (1955) | 2430 | 237 | 289 | 395 | 466 | 1110 | 1950 | 2190 | 4700 | 11800 |
| 2026-05-06 02:15 | 2.75 | 1000 | 37800 (2022) | 164 (1955) | 2430 | 237 | 289 | 395 | 466 | 1110 | 1950 | 2190 | 4700 | 11800 |
| 2026-05-06 01:15 | 2.74 | 998 | 37800 (2022) | 164 (1955) | 2430 | 237 | 289 | 395 | 466 | 1110 | 1950 | 2190 | 4700 | 11800 |
| 2026-05-06 00:15 | 2.75 | 1000 | 37800 (2022) | 164 (1955) | 2430 | 237 | 289 | 395 | 466 | 1110 | 1950 | 2190 | 4700 | 11800 |
| 2026-05-05 23:15 | 2.75 | 1000 | 37800 (2022) | 164 (1955) | 2430 | 237 | 289 | 395 | 466 | 1110 | 1950 | 2190 | 4700 | 11800 |
| 2026-05-05 22:15 | 2.74 | 998 | 26800 (2017) | 170 (1955) | 2290 | 231 | 305 | 427 | 463 | 913 | 2310 | 2570 | 4720 | 10500 |
| 2026-05-05 21:15 | 2.74 | 998 | 26800 (2017) | 170 (1955) | 2290 | 231 | 305 | 427 | 463 | 913 | 2310 | 2570 | 4720 | 10500 |
| 2026-05-05 20:15 | 2.73 | 992 | 26800 (2017) | 170 (1955) | 2290 | 231 | 305 | 427 | 463 | 913 | 2310 | 2570 | 4720 | 10500 |
| 2026-05-05 19:15 | 2.74 | 998 | 26800 (2017) | 170 (1955) | 2290 | 231 | 305 | 427 | 463 | 913 | 2310 | 2570 | 4720 | 10500 |
| 2026-05-05 18:15 | 2.75 | 1000 | 26800 (2017) | 170 (1955) | 2290 | 231 | 305 | 427 | 463 | 913 | 2310 | 2570 | 4720 | 10500 |
| 2026-05-05 17:15 | 2.75 | 1000 | 26800 (2017) | 170 (1955) | 2290 | 231 | 305 | 427 | 463 | 913 | 2310 | 2570 | 4720 | 10500 |
| 2026-05-05 16:15 | 2.76 | 1010 | 26800 (2017) | 170 (1955) | 2290 | 231 | 305 | 427 | 463 | 913 | 2310 | 2570 | 4720 | 10500 |
| 2026-05-05 15:15 | 2.76 | 1010 | 26800 (2017) | 170 (1955) | 2290 | 231 | 305 | 427 | 463 | 913 | 2310 | 2570 | 4720 | 10500 |
| 2026-05-05 14:15 | 2.77 | 1020 | 26800 (2017) | 170 (1955) | 2290 | 231 | 305 | 427 | 463 | 913 | 2310 | 2570 | 4720 | 10500 |
| 2026-05-05 13:15 | 2.79 | 1030 | 26800 (2017) | 170 (1955) | 2290 | 231 | 305 | 427 | 463 | 913 | 2310 | 2570 | 4720 | 10500 |
| 2026-05-05 12:15 | 2.81 | 1040 | 26800 (2017) | 170 (1955) | 2290 | 231 | 305 | 427 | 463 | 913 | 2310 | 2570 | 4720 | 10500 |
| 2026-05-05 11:15 | 2.82 | 1050 | 26800 (2017) | 170 (1955) | 2290 | 231 | 305 | 427 | 463 | 913 | 2310 | 2570 | 4720 | 10500 |
| 2026-05-05 10:15 | 2.82 | 1050 | 26800 (2017) | 170 (1955) | 2290 | 231 | 305 | 427 | 463 | 913 | 2310 | 2570 | 4720 | 10500 |
| 2026-05-05 09:15 | 2.84 | 1060 | 26800 (2017) | 170 (1955) | 2290 | 231 | 305 | 427 | 463 | 913 | 2310 | 2570 | 4720 | 10500 |
| 2026-05-05 08:15 | 2.83 | 1050 | 26800 (2017) | 170 (1955) | 2290 | 231 | 305 | 427 | 463 | 913 | 2310 | 2570 | 4720 | 10500 |
| 2026-05-05 07:15 | 2.86 | 1070 | 26800 (2017) | 170 (1955) | 2290 | 231 | 305 | 427 | 463 | 913 | 2310 | 2570 | 4720 | 10500 |
| 2026-05-05 06:15 | 2.88 | 1090 | 26800 (2017) | 170 (1955) | 2290 | 231 | 305 | 427 | 463 | 913 | 2310 | 2570 | 4720 | 10500 |
| 2026-05-05 05:15 | 2.88 | 1090 | 26800 (2017) | 170 (1955) | 2290 | 231 | 305 | 427 | 463 | 913 | 2310 | 2570 | 4720 | 10500 |
| 2026-05-05 04:15 | 2.89 | 1090 | 26800 (2017) | 170 (1955) | 2290 | 231 | 305 | 427 | 463 | 913 | 2310 | 2570 | 4720 | 10500 |
| 2026-05-05 03:15 | 2.91 | 1110 | 26800 (2017) | 170 (1955) | 2290 | 231 | 305 | 427 | 463 | 913 | 2310 | 2570 | 4720 | 10500 |
| 2026-05-05 02:15 | 2.91 | 1110 | 26800 (2017) | 170 (1955) | 2290 | 231 | 305 | 427 | 463 | 913 | 2310 | 2570 | 4720 | 10500 |
| 2026-05-05 01:15 | 2.92 | 1110 | 26800 (2017) | 170 (1955) | 2290 | 231 | 305 | 427 | 463 | 913 | 2310 | 2570 | 4720 | 10500 |
| 2026-05-05 00:15 | 2.93 | 1120 | 26800 (2017) | 170 (1955) | 2290 | 231 | 305 | 427 | 463 | 913 | 2310 | 2570 | 4720 | 10500 |
| 2026-05-04 23:15 | 2.94 | 1130 | 26800 (2017) | 170 (1955) | 2290 | 231 | 305 | 427 | 463 | 913 | 2310 | 2570 | 4720 | 10500 |
| 2026-05-04 22:15 | 2.94 | 1130 | 20000 (2017) | 178 (1955) | 1950 | 249 | 325 | 430 | 483 | 1020 | 2330 | 2870 | 3770 | 6780 |
| 2026-05-04 21:15 | 2.96 | 1140 | 20000 (2017) | 178 (1955) | 1950 | 249 | 325 | 430 | 483 | 1020 | 2330 | 2870 | 3770 | 6780 |
| 2026-05-04 20:15 | 2.97 | 1140 | 20000 (2017) | 178 (1955) | 1950 | 249 | 325 | 430 | 483 | 1020 | 2330 | 2870 | 3770 | 6780 |
| 2026-05-04 19:15 | 3.00 | 1160 | 20000 (2017) | 178 (1955) | 1950 | 249 | 325 | 430 | 483 | 1020 | 2330 | 2870 | 3770 | 6780 |
| 2026-05-04 18:15 | 3.01 | 1170 | 20000 (2017) | 178 (1955) | 1950 | 249 | 325 | 430 | 483 | 1020 | 2330 | 2870 | 3770 | 6780 |
| 2026-05-04 17:15 | 3.02 | 1180 | 20000 (2017) | 178 (1955) | 1950 | 249 | 325 | 430 | 483 | 1020 | 2330 | 2870 | 3770 | 6780 |
| 2026-05-04 16:15 | 3.03 | 1180 | 20000 (2017) | 178 (1955) | 1950 | 249 | 325 | 430 | 483 | 1020 | 2330 | 2870 | 3770 | 6780 |
| 2026-05-04 15:15 | 3.04 | 1190 | 20000 (2017) | 178 (1955) | 1950 | 249 | 325 | 430 | 483 | 1020 | 2330 | 2870 | 3770 | 6780 |
| 2026-05-04 14:15 | 3.06 | 1210 | 20000 (2017) | 178 (1955) | 1950 | 249 | 325 | 430 | 483 | 1020 | 2330 | 2870 | 3770 | 6780 |
| 2026-05-04 13:15 | 3.07 | 1210 | 20000 (2017) | 178 (1955) | 1950 | 249 | 325 | 430 | 483 | 1020 | 2330 | 2870 | 3770 | 6780 |
| 2026-05-04 12:15 | 3.11 | 1240 | 20000 (2017) | 178 (1955) | 1950 | 249 | 325 | 430 | 483 | 1020 | 2330 | 2870 | 3770 | 6780 |
| 2026-05-04 11:15 | 3.10 | 1230 | 20000 (2017) | 178 (1955) | 1950 | 249 | 325 | 430 | 483 | 1020 | 2330 | 2870 | 3770 | 6780 |
| 2026-05-04 10:15 | 3.12 | 1250 | 20000 (2017) | 178 (1955) | 1950 | 249 | 325 | 430 | 483 | 1020 | 2330 | 2870 | 3770 | 6780 |
| 2026-05-04 09:15 | 3.13 | 1250 | 20000 (2017) | 178 (1955) | 1950 | 249 | 325 | 430 | 483 | 1020 | 2330 | 2870 | 3770 | 6780 |
| 2026-05-04 08:15 | 3.14 | 1260 | 20000 (2017) | 178 (1955) | 1950 | 249 | 325 | 430 | 483 | 1020 | 2330 | 2870 | 3770 | 6780 |
| 2026-05-04 07:15 | 3.16 | 1270 | 20000 (2017) | 178 (1955) | 1950 | 249 | 325 | 430 | 483 | 1020 | 2330 | 2870 | 3770 | 6780 |
| 2026-05-04 06:15 | 3.15 | 1270 | 20000 (2017) | 178 (1955) | 1950 | 249 | 325 | 430 | 483 | 1020 | 2330 | 2870 | 3770 | 6780 |
| 2026-05-04 05:15 | 3.18 | 1290 | 20000 (2017) | 178 (1955) | 1950 | 249 | 325 | 430 | 483 | 1020 | 2330 | 2870 | 3770 | 6780 |
| 2026-05-04 04:15 | 3.20 | 1300 | 20000 (2017) | 178 (1955) | 1950 | 249 | 325 | 430 | 483 | 1020 | 2330 | 2870 | 3770 | 6780 |
| 2026-05-04 03:15 | 3.21 | 1310 | 20000 (2017) | 178 (1955) | 1950 | 249 | 325 | 430 | 483 | 1020 | 2330 | 2870 | 3770 | 6780 |
| 2026-05-04 02:15 | 3.21 | 1310 | 20000 (2017) | 178 (1955) | 1950 | 249 | 325 | 430 | 483 | 1020 | 2330 | 2870 | 3770 | 6780 |
| 2026-05-04 01:15 | 3.24 | 1330 | 20000 (2017) | 178 (1955) | 1950 | 249 | 325 | 430 | 483 | 1020 | 2330 | 2870 | 3770 | 6780 |
| 2026-05-04 00:15 | 3.25 | 1340 | 20000 (2017) | 178 (1955) | 1950 | 249 | 325 | 430 | 483 | 1020 | 2330 | 2870 | 3770 | 6780 |
| 2026-05-03 23:15 | 3.26 | 1350 | 20000 (2017) | 178 (1955) | 1950 | 249 | 325 | 430 | 483 | 1020 | 2330 | 2870 | 3770 | 6780 |
| 2026-05-03 22:15 | 3.28 | 1360 | 18300 (1937) | 190 (1955) | 2170 | 255 | 351 | 474 | 520 | 1060 | 2570 | 2870 | 5210 | 9020 |
| 2026-05-03 21:15 | 3.31 | 1380 | 18300 (1937) | 190 (1955) | 2170 | 255 | 351 | 474 | 520 | 1060 | 2570 | 2870 | 5210 | 9020 |
| 2026-05-03 20:15 | 3.31 | 1380 | 18300 (1937) | 190 (1955) | 2170 | 255 | 351 | 474 | 520 | 1060 | 2570 | 2870 | 5210 | 9020 |
| 2026-05-03 19:15 | 3.32 | 1390 | 18300 (1937) | 190 (1955) | 2170 | 255 | 351 | 474 | 520 | 1060 | 2570 | 2870 | 5210 | 9020 |
| 2026-05-03 18:15 | 3.35 | 1410 | 18300 (1937) | 190 (1955) | 2170 | 255 | 351 | 474 | 520 | 1060 | 2570 | 2870 | 5210 | 9020 |
| 2026-05-03 17:15 | 3.36 | 1420 | 18300 (1937) | 190 (1955) | 2170 | 255 | 351 | 474 | 520 | 1060 | 2570 | 2870 | 5210 | 9020 |
| 2026-05-03 16:15 | 3.39 | 1440 | 18300 (1937) | 190 (1955) | 2170 | 255 | 351 | 474 | 520 | 1060 | 2570 | 2870 | 5210 | 9020 |
| 2026-05-03 15:15 | 3.40 | 1450 | 18300 (1937) | 190 (1955) | 2170 | 255 | 351 | 474 | 520 | 1060 | 2570 | 2870 | 5210 | 9020 |
| 2026-05-03 14:15 | 3.42 | 1460 | 18300 (1937) | 190 (1955) | 2170 | 255 | 351 | 474 | 520 | 1060 | 2570 | 2870 | 5210 | 9020 |
| 2026-05-03 13:15 | 3.43 | 1470 | 18300 (1937) | 190 (1955) | 2170 | 255 | 351 | 474 | 520 | 1060 | 2570 | 2870 | 5210 | 9020 |
| 2026-05-03 12:15 | 3.45 | 1490 | 18300 (1937) | 190 (1955) | 2170 | 255 | 351 | 474 | 520 | 1060 | 2570 | 2870 | 5210 | 9020 |
| 2026-05-03 11:15 | 3.47 | 1500 | 18300 (1937) | 190 (1955) | 2170 | 255 | 351 | 474 | 520 | 1060 | 2570 | 2870 | 5210 | 9020 |
| 2026-05-03 10:15 | 3.50 | 1520 | 18300 (1937) | 190 (1955) | 2170 | 255 | 351 | 474 | 520 | 1060 | 2570 | 2870 | 5210 | 9020 |
| 2026-05-03 09:15 | 3.50 | 1520 | 18300 (1937) | 190 (1955) | 2170 | 255 | 351 | 474 | 520 | 1060 | 2570 | 2870 | 5210 | 9020 |
| 2026-05-03 08:15 | 3.52 | 1540 | 18300 (1937) | 190 (1955) | 2170 | 255 | 351 | 474 | 520 | 1060 | 2570 | 2870 | 5210 | 9020 |
| 2026-05-03 07:15 | 3.54 | 1560 | 18300 (1937) | 190 (1955) | 2170 | 255 | 351 | 474 | 520 | 1060 | 2570 | 2870 | 5210 | 9020 |
| 2026-05-03 06:15 | 3.56 | 1570 | 18300 (1937) | 190 (1955) | 2170 | 255 | 351 | 474 | 520 | 1060 | 2570 | 2870 | 5210 | 9020 |
| 2026-05-03 05:15 | 3.57 | 1580 | 18300 (1937) | 190 (1955) | 2170 | 255 | 351 | 474 | 520 | 1060 | 2570 | 2870 | 5210 | 9020 |
| 2026-05-03 04:15 | 3.59 | 1590 | 18300 (1937) | 190 (1955) | 2170 | 255 | 351 | 474 | 520 | 1060 | 2570 | 2870 | 5210 | 9020 |
| 2026-05-03 03:15 | 3.60 | 1600 | 18300 (1937) | 190 (1955) | 2170 | 255 | 351 | 474 | 520 | 1060 | 2570 | 2870 | 5210 | 9020 |
| 2026-05-03 02:15 | 3.64 | 1630 | 18300 (1937) | 190 (1955) | 2170 | 255 | 351 | 474 | 520 | 1060 | 2570 | 2870 | 5210 | 9020 |
| 2026-05-03 01:15 | 3.65 | 1640 | 18300 (1937) | 190 (1955) | 2170 | 255 | 351 | 474 | 520 | 1060 | 2570 | 2870 | 5210 | 9020 |
| 2026-05-03 00:15 | 3.68 | 1670 | 18300 (1937) | 190 (1955) | 2170 | 255 | 351 | 474 | 520 | 1060 | 2570 | 2870 | 5210 | 9020 |
| 2026-05-02 23:15 | 3.68 | 1670 | 18300 (1937) | 190 (1955) | 2170 | 255 | 351 | 474 | 520 | 1060 | 2570 | 2870 | 5210 | 9020 |
| 2026-05-02 22:15 | 3.70 | 1680 | 34000 (2019) | 199 (1955) | 2990 | 277 | 360 | 492 | 555 | 1130 | 2680 | 3500 | 7460 | 15500 |
| 2026-05-02 21:15 | 3.73 | 1710 | 34000 (2019) | 199 (1955) | 2990 | 277 | 360 | 492 | 555 | 1130 | 2680 | 3500 | 7460 | 15500 |
| 2026-05-02 20:15 | 3.75 | 1720 | 34000 (2019) | 199 (1955) | 2990 | 277 | 360 | 492 | 555 | 1130 | 2680 | 3500 | 7460 | 15500 |
| 2026-05-02 19:15 | 3.76 | 1730 | 34000 (2019) | 199 (1955) | 2990 | 277 | 360 | 492 | 555 | 1130 | 2680 | 3500 | 7460 | 15500 |
| 2026-05-02 18:15 | 3.80 | 1760 | 34000 (2019) | 199 (1955) | 2990 | 277 | 360 | 492 | 555 | 1130 | 2680 | 3500 | 7460 | 15500 |
| 2026-05-02 17:15 | 3.82 | 1780 | 34000 (2019) | 199 (1955) | 2990 | 277 | 360 | 492 | 555 | 1130 | 2680 | 3500 | 7460 | 15500 |
| 2026-05-02 16:15 | 3.85 | 1800 | 34000 (2019) | 199 (1955) | 2990 | 277 | 360 | 492 | 555 | 1130 | 2680 | 3500 | 7460 | 15500 |
| 2026-05-02 15:15 | 3.87 | 1820 | 34000 (2019) | 199 (1955) | 2990 | 277 | 360 | 492 | 555 | 1130 | 2680 | 3500 | 7460 | 15500 |
| 2026-05-02 14:15 | 3.90 | 1850 | 34000 (2019) | 199 (1955) | 2990 | 277 | 360 | 492 | 555 | 1130 | 2680 | 3500 | 7460 | 15500 |
| 2026-05-02 13:15 | 3.91 | 1860 | 34000 (2019) | 199 (1955) | 2990 | 277 | 360 | 492 | 555 | 1130 | 2680 | 3500 | 7460 | 15500 |
| 2026-05-02 12:15 | 3.94 | 1880 | 34000 (2019) | 199 (1955) | 2990 | 277 | 360 | 492 | 555 | 1130 | 2680 | 3500 | 7460 | 15500 |
| 2026-05-02 11:15 | 3.95 | 1890 | 34000 (2019) | 199 (1955) | 2990 | 277 | 360 | 492 | 555 | 1130 | 2680 | 3500 | 7460 | 15500 |
| 2026-05-02 10:15 | 3.98 | 1910 | 34000 (2019) | 199 (1955) | 2990 | 277 | 360 | 492 | 555 | 1130 | 2680 | 3500 | 7460 | 15500 |
| 2026-05-02 09:15 | 3.99 | 1920 | 34000 (2019) | 199 (1955) | 2990 | 277 | 360 | 492 | 555 | 1130 | 2680 | 3500 | 7460 | 15500 |
| 2026-05-02 08:15 | 4.01 | 1940 | 34000 (2019) | 199 (1955) | 2990 | 277 | 360 | 492 | 555 | 1130 | 2680 | 3500 | 7460 | 15500 |
| 2026-05-02 07:15 | 4.04 | 1970 | 34000 (2019) | 199 (1955) | 2990 | 277 | 360 | 492 | 555 | 1130 | 2680 | 3500 | 7460 | 15500 |
| 2026-05-02 06:15 | 4.07 | 1990 | 34000 (2019) | 199 (1955) | 2990 | 277 | 360 | 492 | 555 | 1130 | 2680 | 3500 | 7460 | 15500 |
| 2026-05-02 05:15 | 4.10 | 2020 | 34000 (2019) | 199 (1955) | 2990 | 277 | 360 | 492 | 555 | 1130 | 2680 | 3500 | 7460 | 15500 |
| 2026-05-02 04:15 | 4.12 | 2040 | 34000 (2019) | 199 (1955) | 2990 | 277 | 360 | 492 | 555 | 1130 | 2680 | 3500 | 7460 | 15500 |
| 2026-05-02 03:15 | 4.15 | 2060 | 34000 (2019) | 199 (1955) | 2990 | 277 | 360 | 492 | 555 | 1130 | 2680 | 3500 | 7460 | 15500 |
| 2026-05-02 02:15 | 4.16 | 2070 | 34000 (2019) | 199 (1955) | 2990 | 277 | 360 | 492 | 555 | 1130 | 2680 | 3500 | 7460 | 15500 |
| 2026-05-02 01:15 | 4.20 | 2110 | 34000 (2019) | 199 (1955) | 2990 | 277 | 360 | 492 | 555 | 1130 | 2680 | 3500 | 7460 | 15500 |
| 2026-05-02 00:15 | 4.23 | 2130 | 34000 (2019) | 199 (1955) | 2990 | 277 | 360 | 492 | 555 | 1130 | 2680 | 3500 | 7460 | 15500 |
| 2026-05-01 23:15 | 4.26 | 2160 | 34000 (2019) | 199 (1955) | 2990 | 277 | 360 | 492 | 555 | 1130 | 2680 | 3500 | 7460 | 15500 |
| 2026-05-01 22:15 | 4.28 | 2180 | 78500 (2017) | 144 (1954) | 3380 | 218 | 329 | 461 | 556 | 1050 | 3070 | 4190 | 5670 | 11200 |
| 2026-05-01 21:15 | 4.32 | 2220 | 78500 (2017) | 144 (1954) | 3380 | 218 | 329 | 461 | 556 | 1050 | 3070 | 4190 | 5670 | 11200 |
| 2026-05-01 20:15 | 4.35 | 2240 | 78500 (2017) | 144 (1954) | 3380 | 218 | 329 | 461 | 556 | 1050 | 3070 | 4190 | 5670 | 11200 |
| 2026-05-01 19:15 | 4.36 | 2250 | 78500 (2017) | 144 (1954) | 3380 | 218 | 329 | 461 | 556 | 1050 | 3070 | 4190 | 5670 | 11200 |
| 2026-05-01 18:15 | 4.37 | 2260 | 78500 (2017) | 144 (1954) | 3380 | 218 | 329 | 461 | 556 | 1050 | 3070 | 4190 | 5670 | 11200 |
| 2026-05-01 17:15 | 4.45 | 2340 | 78500 (2017) | 144 (1954) | 3380 | 218 | 329 | 461 | 556 | 1050 | 3070 | 4190 | 5670 | 11200 |
| 2026-05-01 16:15 | 4.49 | 2370 | 78500 (2017) | 144 (1954) | 3380 | 218 | 329 | 461 | 556 | 1050 | 3070 | 4190 | 5670 | 11200 |
| 2026-05-01 15:15 | 4.52 | 2400 | 78500 (2017) | 144 (1954) | 3380 | 218 | 329 | 461 | 556 | 1050 | 3070 | 4190 | 5670 | 11200 |
| 2026-05-01 14:15 | 4.53 | 2410 | 78500 (2017) | 144 (1954) | 3380 | 218 | 329 | 461 | 556 | 1050 | 3070 | 4190 | 5670 | 11200 |
| 2026-05-01 13:15 | 4.59 | 2460 | 78500 (2017) | 144 (1954) | 3380 | 218 | 329 | 461 | 556 | 1050 | 3070 | 4190 | 5670 | 11200 |
| 2026-05-01 12:15 | 4.62 | 2480 | 78500 (2017) | 144 (1954) | 3380 | 218 | 329 | 461 | 556 | 1050 | 3070 | 4190 | 5670 | 11200 |
| 2026-05-01 11:15 | 4.66 | 2520 | 78500 (2017) | 144 (1954) | 3380 | 218 | 329 | 461 | 556 | 1050 | 3070 | 4190 | 5670 | 11200 |
| 2026-05-01 10:15 | 4.69 | 2540 | 78500 (2017) | 144 (1954) | 3380 | 218 | 329 | 461 | 556 | 1050 | 3070 | 4190 | 5670 | 11200 |
| 2026-05-01 09:15 | 4.73 | 2580 | 78500 (2017) | 144 (1954) | 3380 | 218 | 329 | 461 | 556 | 1050 | 3070 | 4190 | 5670 | 11200 |
| 2026-05-01 08:15 | 4.76 | 2600 | 78500 (2017) | 144 (1954) | 3380 | 218 | 329 | 461 | 556 | 1050 | 3070 | 4190 | 5670 | 11200 |
| 2026-05-01 07:15 | 4.79 | 2630 | 78500 (2017) | 144 (1954) | 3380 | 218 | 329 | 461 | 556 | 1050 | 3070 | 4190 | 5670 | 11200 |
| 2026-05-01 06:15 | 4.84 | 2670 | 78500 (2017) | 144 (1954) | 3380 | 218 | 329 | 461 | 556 | 1050 | 3070 | 4190 | 5670 | 11200 |
| 2026-05-01 05:15 | 4.88 | 2700 | 78500 (2017) | 144 (1954) | 3380 | 218 | 329 | 461 | 556 | 1050 | 3070 | 4190 | 5670 | 11200 |
| 2026-05-01 04:15 | 4.93 | 2750 | 78500 (2017) | 144 (1954) | 3380 | 218 | 329 | 461 | 556 | 1050 | 3070 | 4190 | 5670 | 11200 |
| 2026-05-01 03:15 | 4.97 | 2780 | 78500 (2017) | 144 (1954) | 3380 | 218 | 329 | 461 | 556 | 1050 | 3070 | 4190 | 5670 | 11200 |
| 2026-05-01 02:15 | 5.02 | 2830 | 78500 (2017) | 144 (1954) | 3380 | 218 | 329 | 461 | 556 | 1050 | 3070 | 4190 | 5670 | 11200 |
| 2026-05-01 01:15 | 5.07 | 2870 | 78500 (2017) | 144 (1954) | 3380 | 218 | 329 | 461 | 556 | 1050 | 3070 | 4190 | 5670 | 11200 |
| 2026-05-01 00:15 | 5.11 | 2910 | 78500 (2017) | 144 (1954) | 3380 | 218 | 329 | 461 | 556 | 1050 | 3070 | 4190 | 5670 | 11200 |
| 2026-04-30 23:15 | 5.15 | 2940 | 78500 (2017) | 144 (1954) | 3380 | 218 | 329 | 461 | 556 | 1050 | 3070 | 4190 | 5670 | 11200 |
| 2026-04-30 22:15 | 5.22 | 3010 | 91000 (2017) | 147 (1954) | 3230 | 200 | 329 | 536 | 600 | 1010 | 2010 | 2670 | 5740 | 9310 |
| 2026-04-30 21:15 | 5.26 | 3040 | 91000 (2017) | 147 (1954) | 3230 | 200 | 329 | 536 | 600 | 1010 | 2010 | 2670 | 5740 | 9310 |
| 2026-04-30 20:15 | 5.32 | 3100 | 91000 (2017) | 147 (1954) | 3230 | 200 | 329 | 536 | 600 | 1010 | 2010 | 2670 | 5740 | 9310 |
| 2026-04-30 19:15 | 5.38 | 3160 | 91000 (2017) | 147 (1954) | 3230 | 200 | 329 | 536 | 600 | 1010 | 2010 | 2670 | 5740 | 9310 |
| 2026-04-30 18:15 | 5.44 | 3210 | 91000 (2017) | 147 (1954) | 3230 | 200 | 329 | 536 | 600 | 1010 | 2010 | 2670 | 5740 | 9310 |
| 2026-04-30 17:15 | 5.51 | 3280 | 91000 (2017) | 147 (1954) | 3230 | 200 | 329 | 536 | 600 | 1010 | 2010 | 2670 | 5740 | 9310 |
| 2026-04-30 16:15 | 5.57 | 3340 | 91000 (2017) | 147 (1954) | 3230 | 200 | 329 | 536 | 600 | 1010 | 2010 | 2670 | 5740 | 9310 |
| 2026-04-30 15:15 | 5.64 | 3400 | 91000 (2017) | 147 (1954) | 3230 | 200 | 329 | 536 | 600 | 1010 | 2010 | 2670 | 5740 | 9310 |
| 2026-04-30 14:15 | 5.71 | 3470 | 91000 (2017) | 147 (1954) | 3230 | 200 | 329 | 536 | 600 | 1010 | 2010 | 2670 | 5740 | 9310 |
| 2026-04-30 13:15 | 5.78 | 3540 | 91000 (2017) | 147 (1954) | 3230 | 200 | 329 | 536 | 600 | 1010 | 2010 | 2670 | 5740 | 9310 |
| 2026-04-30 12:15 | 5.85 | 3610 | 91000 (2017) | 147 (1954) | 3230 | 200 | 329 | 536 | 600 | 1010 | 2010 | 2670 | 5740 | 9310 |
| 2026-04-30 11:15 | 5.92 | 3680 | 91000 (2017) | 147 (1954) | 3230 | 200 | 329 | 536 | 600 | 1010 | 2010 | 2670 | 5740 | 9310 |
| 2026-04-30 10:15 | 6.00 | 3760 | 91000 (2017) | 147 (1954) | 3230 | 200 | 329 | 536 | 600 | 1010 | 2010 | 2670 | 5740 | 9310 |
| 2026-04-30 09:15 | 6.08 | 3840 | 91000 (2017) | 147 (1954) | 3230 | 200 | 329 | 536 | 600 | 1010 | 2010 | 2670 | 5740 | 9310 |
| 2026-04-30 08:15 | 6.17 | 3930 | 91000 (2017) | 147 (1954) | 3230 | 200 | 329 | 536 | 600 | 1010 | 2010 | 2670 | 5740 | 9310 |
| 2026-04-30 07:15 | 6.26 | 4020 | 91000 (2017) | 147 (1954) | 3230 | 200 | 329 | 536 | 600 | 1010 | 2010 | 2670 | 5740 | 9310 |
| 2026-04-30 06:15 | 6.34 | 4090 | 91000 (2017) | 147 (1954) | 3230 | 200 | 329 | 536 | 600 | 1010 | 2010 | 2670 | 5740 | 9310 |
| 2026-04-30 05:15 | 6.43 | 4180 | 91000 (2017) | 147 (1954) | 3230 | 200 | 329 | 536 | 600 | 1010 | 2010 | 2670 | 5740 | 9310 |
| 2026-04-30 04:15 | 6.48 | 4230 | 91000 (2017) | 147 (1954) | 3230 | 200 | 329 | 536 | 600 | 1010 | 2010 | 2670 | 5740 | 9310 |
| 2026-04-30 03:15 | 6.54 | 4280 | 91000 (2017) | 147 (1954) | 3230 | 200 | 329 | 536 | 600 | 1010 | 2010 | 2670 | 5740 | 9310 |
| 2026-04-30 02:15 | 6.56 | 4300 | 91000 (2017) | 147 (1954) | 3230 | 200 | 329 | 536 | 600 | 1010 | 2010 | 2670 | 5740 | 9310 |
| 2026-04-30 01:15 | 6.54 | 4280 | 91000 (2017) | 147 (1954) | 3230 | 200 | 329 | 536 | 600 | 1010 | 2010 | 2670 | 5740 | 9310 |
| 2026-04-30 00:15 | 6.48 | 4230 | 91000 (2017) | 147 (1954) | 3230 | 200 | 329 | 536 | 600 | 1010 | 2010 | 2670 | 5740 | 9310 |
| 2026-04-29 23:15 | 6.36 | 4110 | 91000 (2017) | 147 (1954) | 3230 | 200 | 329 | 536 | 600 | 1010 | 2010 | 2670 | 5740 | 9310 |
| 2026-04-29 22:15 | 6.15 | 3910 | 15100 (2017) | 124 (1956) | 1880 | 211 | 269 | 544 | 618 | 1000 | 1700 | 2080 | 4220 | 8660 |
| 2026-04-29 21:15 | 5.86 | 3620 | 15100 (2017) | 124 (1956) | 1880 | 211 | 269 | 544 | 618 | 1000 | 1700 | 2080 | 4220 | 8660 |
| 2026-04-29 20:15 | 5.43 | 3200 | 15100 (2017) | 124 (1956) | 1880 | 211 | 269 | 544 | 618 | 1000 | 1700 | 2080 | 4220 | 8660 |
| 2026-04-29 19:15 | 4.89 | 2710 | 15100 (2017) | 124 (1956) | 1880 | 211 | 269 | 544 | 618 | 1000 | 1700 | 2080 | 4220 | 8660 |
| 2026-04-29 18:15 | 4.37 | 2260 | 15100 (2017) | 124 (1956) | 1880 | 211 | 269 | 544 | 618 | 1000 | 1700 | 2080 | 4220 | 8660 |
| 2026-04-29 17:15 | 4.15 | 2060 | 15100 (2017) | 124 (1956) | 1880 | 211 | 269 | 544 | 618 | 1000 | 1700 | 2080 | 4220 | 8660 |
| 2026-04-29 16:15 | 4.09 | 2010 | 15100 (2017) | 124 (1956) | 1880 | 211 | 269 | 544 | 618 | 1000 | 1700 | 2080 | 4220 | 8660 |
| 2026-04-29 15:15 | 4.09 | 2010 | 15100 (2017) | 124 (1956) | 1880 | 211 | 269 | 544 | 618 | 1000 | 1700 | 2080 | 4220 | 8660 |
| 2026-04-29 14:15 | 4.11 | 2030 | 15100 (2017) | 124 (1956) | 1880 | 211 | 269 | 544 | 618 | 1000 | 1700 | 2080 | 4220 | 8660 |
| 2026-04-29 13:15 | 4.14 | 2050 | 15100 (2017) | 124 (1956) | 1880 | 211 | 269 | 544 | 618 | 1000 | 1700 | 2080 | 4220 | 8660 |
| 2026-04-29 12:15 | 4.18 | 2090 | 15100 (2017) | 124 (1956) | 1880 | 211 | 269 | 544 | 618 | 1000 | 1700 | 2080 | 4220 | 8660 |
| 2026-04-29 11:15 | 4.19 | 2100 | 15100 (2017) | 124 (1956) | 1880 | 211 | 269 | 544 | 618 | 1000 | 1700 | 2080 | 4220 | 8660 |
| 2026-04-29 10:15 | 4.21 | 2120 | 15100 (2017) | 124 (1956) | 1880 | 211 | 269 | 544 | 618 | 1000 | 1700 | 2080 | 4220 | 8660 |
| 2026-04-29 09:15 | 4.22 | 2130 | 15100 (2017) | 124 (1956) | 1880 | 211 | 269 | 544 | 618 | 1000 | 1700 | 2080 | 4220 | 8660 |
| 2026-04-29 08:15 | 4.19 | 2100 | 15100 (2017) | 124 (1956) | 1880 | 211 | 269 | 544 | 618 | 1000 | 1700 | 2080 | 4220 | 8660 |
| 2026-04-29 07:15 | 4.19 | 2100 | 15100 (2017) | 124 (1956) | 1880 | 211 | 269 | 544 | 618 | 1000 | 1700 | 2080 | 4220 | 8660 |
| 2026-04-29 06:15 | 4.18 | 2090 | 15100 (2017) | 124 (1956) | 1880 | 211 | 269 | 544 | 618 | 1000 | 1700 | 2080 | 4220 | 8660 |
| 2026-04-29 05:15 | 4.19 | 2100 | 15100 (2017) | 124 (1956) | 1880 | 211 | 269 | 544 | 618 | 1000 | 1700 | 2080 | 4220 | 8660 |
| 2026-04-29 04:15 | 4.21 | 2120 | 15100 (2017) | 124 (1956) | 1880 | 211 | 269 | 544 | 618 | 1000 | 1700 | 2080 | 4220 | 8660 |
| 2026-04-29 03:15 | 4.23 | 2130 | 15100 (2017) | 124 (1956) | 1880 | 211 | 269 | 544 | 618 | 1000 | 1700 | 2080 | 4220 | 8660 |
| 2026-04-29 02:15 | 4.27 | 2170 | 15100 (2017) | 124 (1956) | 1880 | 211 | 269 | 544 | 618 | 1000 | 1700 | 2080 | 4220 | 8660 |
| 2026-04-29 01:15 | 4.32 | 2220 | 15100 (2017) | 124 (1956) | 1880 | 211 | 269 | 544 | 618 | 1000 | 1700 | 2080 | 4220 | 8660 |
| 2026-04-29 00:15 | 4.35 | 2240 | 15100 (2017) | 124 (1956) | 1880 | 211 | 269 | 544 | 618 | 1000 | 1700 | 2080 | 4220 | 8660 |
| 2026-04-28 23:15 | 4.38 | 2270 | 15100 (2017) | 124 (1956) | 1880 | 211 | 269 | 544 | 618 | 1000 | 1700 | 2080 | 4220 | 8660 |
| 2026-04-28 22:15 | 4.41 | 2300 | 16900 (2011) | 126 (1956) | 1900 | 215 | 262 | 477 | 524 | 1010 | 1590 | 2040 | 3350 | 10600 |
| 2026-04-28 21:15 | 4.41 | 2300 | 16900 (2011) | 126 (1956) | 1900 | 215 | 262 | 477 | 524 | 1010 | 1590 | 2040 | 3350 | 10600 |
| 2026-04-28 20:15 | 4.37 | 2260 | 16900 (2011) | 126 (1956) | 1900 | 215 | 262 | 477 | 524 | 1010 | 1590 | 2040 | 3350 | 10600 |
| 2026-04-28 19:15 | 4.28 | 2180 | 16900 (2011) | 126 (1956) | 1900 | 215 | 262 | 477 | 524 | 1010 | 1590 | 2040 | 3350 | 10600 |
| 2026-04-28 18:15 | 4.15 | 2060 | 16900 (2011) | 126 (1956) | 1900 | 215 | 262 | 477 | 524 | 1010 | 1590 | 2040 | 3350 | 10600 |
| 2026-04-28 17:15 | 4.02 | 1950 | 16900 (2011) | 126 (1956) | 1900 | 215 | 262 | 477 | 524 | 1010 | 1590 | 2040 | 3350 | 10600 |
| 2026-04-28 16:15 | 3.91 | 1860 | 16900 (2011) | 126 (1956) | 1900 | 215 | 262 | 477 | 524 | 1010 | 1590 | 2040 | 3350 | 10600 |
| 2026-04-28 15:15 | 3.89 | 1840 | 16900 (2011) | 126 (1956) | 1900 | 215 | 262 | 477 | 524 | 1010 | 1590 | 2040 | 3350 | 10600 |
| 2026-04-28 14:15 | 3.85 | 1800 | 16900 (2011) | 126 (1956) | 1900 | 215 | 262 | 477 | 524 | 1010 | 1590 | 2040 | 3350 | 10600 |
| 2026-04-28 13:15 | 3.89 | 1840 | 16900 (2011) | 126 (1956) | 1900 | 215 | 262 | 477 | 524 | 1010 | 1590 | 2040 | 3350 | 10600 |
| 2026-04-28 12:15 | 3.89 | 1840 | 16900 (2011) | 126 (1956) | 1900 | 215 | 262 | 477 | 524 | 1010 | 1590 | 2040 | 3350 | 10600 |
| 2026-04-28 11:15 | 3.91 | 1860 | 16900 (2011) | 126 (1956) | 1900 | 215 | 262 | 477 | 524 | 1010 | 1590 | 2040 | 3350 | 10600 |
| 2026-04-28 10:15 | 3.94 | 1880 | 16900 (2011) | 126 (1956) | 1900 | 215 | 262 | 477 | 524 | 1010 | 1590 | 2040 | 3350 | 10600 |
| 2026-04-28 09:15 | 3.96 | 1900 | 16900 (2011) | 126 (1956) | 1900 | 215 | 262 | 477 | 524 | 1010 | 1590 | 2040 | 3350 | 10600 |
| 2026-04-28 08:15 | 3.98 | 1910 | 16900 (2011) | 126 (1956) | 1900 | 215 | 262 | 477 | 524 | 1010 | 1590 | 2040 | 3350 | 10600 |
| 2026-04-28 07:15 | 4.00 | 1930 | 16900 (2011) | 126 (1956) | 1900 | 215 | 262 | 477 | 524 | 1010 | 1590 | 2040 | 3350 | 10600 |
| 2026-04-28 06:15 | 4.03 | 1960 | 16900 (2011) | 126 (1956) | 1900 | 215 | 262 | 477 | 524 | 1010 | 1590 | 2040 | 3350 | 10600 |
| 2026-04-28 05:15 | 4.08 | 2000 | 16900 (2011) | 126 (1956) | 1900 | 215 | 262 | 477 | 524 | 1010 | 1590 | 2040 | 3350 | 10600 |
| 2026-04-28 04:15 | 4.11 | 2030 | 16900 (2011) | 126 (1956) | 1900 | 215 | 262 | 477 | 524 | 1010 | 1590 | 2040 | 3350 | 10600 |
| 2026-04-28 03:15 | 4.14 | 2050 | 16900 (2011) | 126 (1956) | 1900 | 215 | 262 | 477 | 524 | 1010 | 1590 | 2040 | 3350 | 10600 |
| 2026-04-28 02:15 | 4.18 | 2090 | 16900 (2011) | 126 (1956) | 1900 | 215 | 262 | 477 | 524 | 1010 | 1590 | 2040 | 3350 | 10600 |
| 2026-04-28 01:15 | 4.22 | 2130 | 16900 (2011) | 126 (1956) | 1900 | 215 | 262 | 477 | 524 | 1010 | 1590 | 2040 | 3350 | 10600 |
| 2026-04-28 00:15 | 4.27 | 2170 | 16900 (2011) | 126 (1956) | 1900 | 215 | 262 | 477 | 524 | 1010 | 1590 | 2040 | 3350 | 10600 |
| 2026-04-27 23:15 | 4.30 | 2200 | 16900 (2011) | 126 (1956) | 1900 | 215 | 262 | 477 | 524 | 1010 | 1590 | 2040 | 3350 | 10600 |
| 2026-04-27 22:15 | 4.32 | 2220 | 43800 (2011) | 128 (1956) | 2390 | 209 | 270 | 479 | 535 | 1030 | 1560 | 2130 | 4330 | 10200 |
| 2026-04-27 21:15 | 4.29 | 2190 | 43800 (2011) | 128 (1956) | 2390 | 209 | 270 | 479 | 535 | 1030 | 1560 | 2130 | 4330 | 10200 |
| 2026-04-27 20:15 | 4.25 | 2150 | 43800 (2011) | 128 (1956) | 2390 | 209 | 270 | 479 | 535 | 1030 | 1560 | 2130 | 4330 | 10200 |
| 2026-04-27 19:15 | 4.27 | 2170 | 43800 (2011) | 128 (1956) | 2390 | 209 | 270 | 479 | 535 | 1030 | 1560 | 2130 | 4330 | 10200 |
| 2026-04-27 18:15 | 4.31 | 2210 | 43800 (2011) | 128 (1956) | 2390 | 209 | 270 | 479 | 535 | 1030 | 1560 | 2130 | 4330 | 10200 |
| 2026-04-27 17:15 | 4.36 | 2250 | 43800 (2011) | 128 (1956) | 2390 | 209 | 270 | 479 | 535 | 1030 | 1560 | 2130 | 4330 | 10200 |
| 2026-04-27 16:15 | 4.40 | 2290 | 43800 (2011) | 128 (1956) | 2390 | 209 | 270 | 479 | 535 | 1030 | 1560 | 2130 | 4330 | 10200 |
| 2026-04-27 15:15 | 4.46 | 2350 | 43800 (2011) | 128 (1956) | 2390 | 209 | 270 | 479 | 535 | 1030 | 1560 | 2130 | 4330 | 10200 |
| 2026-04-27 14:15 | 4.48 | 2360 | 43800 (2011) | 128 (1956) | 2390 | 209 | 270 | 479 | 535 | 1030 | 1560 | 2130 | 4330 | 10200 |
| 2026-04-27 13:15 | 4.54 | 2420 | 43800 (2011) | 128 (1956) | 2390 | 209 | 270 | 479 | 535 | 1030 | 1560 | 2130 | 4330 | 10200 |
| 2026-04-27 12:15 | 4.59 | 2460 | 43800 (2011) | 128 (1956) | 2390 | 209 | 270 | 479 | 535 | 1030 | 1560 | 2130 | 4330 | 10200 |
| 2026-04-27 11:15 | 4.65 | 2510 | 43800 (2011) | 128 (1956) | 2390 | 209 | 270 | 479 | 535 | 1030 | 1560 | 2130 | 4330 | 10200 |
| 2026-04-27 10:15 | 4.71 | 2560 | 43800 (2011) | 128 (1956) | 2390 | 209 | 270 | 479 | 535 | 1030 | 1560 | 2130 | 4330 | 10200 |
| 2026-04-27 09:15 | 4.78 | 2620 | 43800 (2011) | 128 (1956) | 2390 | 209 | 270 | 479 | 535 | 1030 | 1560 | 2130 | 4330 | 10200 |
| 2026-04-27 08:15 | 4.87 | 2700 | 43800 (2011) | 128 (1956) | 2390 | 209 | 270 | 479 | 535 | 1030 | 1560 | 2130 | 4330 | 10200 |
| 2026-04-27 07:15 | 4.98 | 2790 | 43800 (2011) | 128 (1956) | 2390 | 209 | 270 | 479 | 535 | 1030 | 1560 | 2130 | 4330 | 10200 |
| 2026-04-27 06:15 | 5.13 | 2930 | 43800 (2011) | 128 (1956) | 2390 | 209 | 270 | 479 | 535 | 1030 | 1560 | 2130 | 4330 | 10200 |
| 2026-04-27 05:15 | 5.32 | 3100 | 43800 (2011) | 128 (1956) | 2390 | 209 | 270 | 479 | 535 | 1030 | 1560 | 2130 | 4330 | 10200 |
| 2026-04-27 04:15 | 5.57 | 3340 | 43800 (2011) | 128 (1956) | 2390 | 209 | 270 | 479 | 535 | 1030 | 1560 | 2130 | 4330 | 10200 |
| 2026-04-27 03:15 | 5.86 | 3620 | 43800 (2011) | 128 (1956) | 2390 | 209 | 270 | 479 | 535 | 1030 | 1560 | 2130 | 4330 | 10200 |
| 2026-04-27 02:15 | 5.91 | 3670 | 43800 (2011) | 128 (1956) | 2390 | 209 | 270 | 479 | 535 | 1030 | 1560 | 2130 | 4330 | 10200 |
| 2026-04-27 01:15 | 5.18 | 2970 | 43800 (2011) | 128 (1956) | 2390 | 209 | 270 | 479 | 535 | 1030 | 1560 | 2130 | 4330 | 10200 |
| 2026-04-27 00:15 | 4.84 | 2670 | 43800 (2011) | 128 (1956) | 2390 | 209 | 270 | 479 | 535 | 1030 | 1560 | 2130 | 4330 | 10200 |
| 2026-04-26 23:15 | 4.63 | 2490 | 43800 (2011) | 128 (1956) | 2390 | 209 | 270 | 479 | 535 | 1030 | 1560 | 2130 | 4330 | 10200 |
| 2026-04-26 22:15 | 4.67 | 2530 | 56100 (2011) | 133 (1956) | 2950 | 203 | 281 | 490 | 569 | 1050 | 1830 | 1910 | 3890 | 12400 |
| 2026-04-26 21:15 | 4.71 | 2560 | 56100 (2011) | 133 (1956) | 2950 | 203 | 281 | 490 | 569 | 1050 | 1830 | 1910 | 3890 | 12400 |
| 2026-04-26 20:15 | 4.75 | 2590 | 56100 (2011) | 133 (1956) | 2950 | 203 | 281 | 490 | 569 | 1050 | 1830 | 1910 | 3890 | 12400 |
| 2026-04-26 19:15 | 4.78 | 2620 | 56100 (2011) | 133 (1956) | 2950 | 203 | 281 | 490 | 569 | 1050 | 1830 | 1910 | 3890 | 12400 |
| 2026-04-26 18:15 | 4.83 | 2660 | 56100 (2011) | 133 (1956) | 2950 | 203 | 281 | 490 | 569 | 1050 | 1830 | 1910 | 3890 | 12400 |
| 2026-04-26 17:15 | 4.87 | 2700 | 56100 (2011) | 133 (1956) | 2950 | 203 | 281 | 490 | 569 | 1050 | 1830 | 1910 | 3890 | 12400 |
| 2026-04-26 16:15 | 4.92 | 2740 | 56100 (2011) | 133 (1956) | 2950 | 203 | 281 | 490 | 569 | 1050 | 1830 | 1910 | 3890 | 12400 |
| 2026-04-26 15:15 | 4.96 | 2770 | 56100 (2011) | 133 (1956) | 2950 | 203 | 281 | 490 | 569 | 1050 | 1830 | 1910 | 3890 | 12400 |
| 2026-04-26 14:15 | 5.00 | 2810 | 56100 (2011) | 133 (1956) | 2950 | 203 | 281 | 490 | 569 | 1050 | 1830 | 1910 | 3890 | 12400 |
| 2026-04-26 13:15 | 5.05 | 2850 | 56100 (2011) | 133 (1956) | 2950 | 203 | 281 | 490 | 569 | 1050 | 1830 | 1910 | 3890 | 12400 |
| 2026-04-26 12:15 | 5.09 | 2890 | 56100 (2011) | 133 (1956) | 2950 | 203 | 281 | 490 | 569 | 1050 | 1830 | 1910 | 3890 | 12400 |
| 2026-04-26 11:15 | 5.13 | 2930 | 56100 (2011) | 133 (1956) | 2950 | 203 | 281 | 490 | 569 | 1050 | 1830 | 1910 | 3890 | 12400 |
| 2026-04-26 10:15 | 5.17 | 2960 | 56100 (2011) | 133 (1956) | 2950 | 203 | 281 | 490 | 569 | 1050 | 1830 | 1910 | 3890 | 12400 |
| 2026-04-26 09:15 | 5.22 | 3010 | 56100 (2011) | 133 (1956) | 2950 | 203 | 281 | 490 | 569 | 1050 | 1830 | 1910 | 3890 | 12400 |
| 2026-04-26 08:15 | 5.27 | 3050 | 56100 (2011) | 133 (1956) | 2950 | 203 | 281 | 490 | 569 | 1050 | 1830 | 1910 | 3890 | 12400 |
| 2026-04-26 07:15 | 5.32 | 3100 | 56100 (2011) | 133 (1956) | 2950 | 203 | 281 | 490 | 569 | 1050 | 1830 | 1910 | 3890 | 12400 |
| 2026-04-26 06:15 | 5.37 | 3150 | 56100 (2011) | 133 (1956) | 2950 | 203 | 281 | 490 | 569 | 1050 | 1830 | 1910 | 3890 | 12400 |
| 2026-04-26 05:15 | 5.42 | 3190 | 56100 (2011) | 133 (1956) | 2950 | 203 | 281 | 490 | 569 | 1050 | 1830 | 1910 | 3890 | 12400 |
| 2026-04-26 04:15 | 5.48 | 3250 | 56100 (2011) | 133 (1956) | 2950 | 203 | 281 | 490 | 569 | 1050 | 1830 | 1910 | 3890 | 12400 |
| 2026-04-26 03:15 | 5.54 | 3310 | 56100 (2011) | 133 (1956) | 2950 | 203 | 281 | 490 | 569 | 1050 | 1830 | 1910 | 3890 | 12400 |
| 2026-04-26 02:15 | 5.59 | 3360 | 56100 (2011) | 133 (1956) | 2950 | 203 | 281 | 490 | 569 | 1050 | 1830 | 1910 | 3890 | 12400 |
| 2026-04-26 01:15 | 5.65 | 3410 | 56100 (2011) | 133 (1956) | 2950 | 203 | 281 | 490 | 569 | 1050 | 1830 | 1910 | 3890 | 12400 |
| 2026-04-26 00:15 | 5.69 | 3450 | 56100 (2011) | 133 (1956) | 2950 | 203 | 281 | 490 | 569 | 1050 | 1830 | 1910 | 3890 | 12400 |
| 2026-04-25 23:15 | 5.75 | 3510 | 56100 (2011) | 133 (1956) | 2950 | 203 | 281 | 490 | 569 | 1050 | 1830 | 1910 | 3890 | 12400 |
| 2026-04-25 22:15 | 5.79 | 3550 | 29200 (1947) | 143 (1956) | 2420 | 208 | 281 | 465 | 540 | 1100 | 1970 | 2190 | 3600 | 11200 |
| 2026-04-25 21:15 | 5.82 | 3580 | 29200 (1947) | 143 (1956) | 2420 | 208 | 281 | 465 | 540 | 1100 | 1970 | 2190 | 3600 | 11200 |
| 2026-04-25 20:15 | 5.84 | 3600 | 29200 (1947) | 143 (1956) | 2420 | 208 | 281 | 465 | 540 | 1100 | 1970 | 2190 | 3600 | 11200 |
| 2026-04-25 19:15 | 5.87 | 3630 | 29200 (1947) | 143 (1956) | 2420 | 208 | 281 | 465 | 540 | 1100 | 1970 | 2190 | 3600 | 11200 |
| 2026-04-25 18:15 | 5.84 | 3600 | 29200 (1947) | 143 (1956) | 2420 | 208 | 281 | 465 | 540 | 1100 | 1970 | 2190 | 3600 | 11200 |
| 2026-04-25 17:15 | 5.84 | 3600 | 29200 (1947) | 143 (1956) | 2420 | 208 | 281 | 465 | 540 | 1100 | 1970 | 2190 | 3600 | 11200 |
| 2026-04-25 16:15 | 5.79 | 3550 | 29200 (1947) | 143 (1956) | 2420 | 208 | 281 | 465 | 540 | 1100 | 1970 | 2190 | 3600 | 11200 |
| 2026-04-25 15:15 | 5.74 | 3500 | 29200 (1947) | 143 (1956) | 2420 | 208 | 281 | 465 | 540 | 1100 | 1970 | 2190 | 3600 | 11200 |
| 2026-04-25 14:15 | 5.65 | 3410 | 29200 (1947) | 143 (1956) | 2420 | 208 | 281 | 465 | 540 | 1100 | 1970 | 2190 | 3600 | 11200 |
| 2026-04-25 13:15 | 5.54 | 3310 | 29200 (1947) | 143 (1956) | 2420 | 208 | 281 | 465 | 540 | 1100 | 1970 | 2190 | 3600 | 11200 |
| 2026-04-25 12:15 | 5.44 | 3210 | 29200 (1947) | 143 (1956) | 2420 | 208 | 281 | 465 | 540 | 1100 | 1970 | 2190 | 3600 | 11200 |
| 2026-04-25 11:15 | 5.32 | 3100 | 29200 (1947) | 143 (1956) | 2420 | 208 | 281 | 465 | 540 | 1100 | 1970 | 2190 | 3600 | 11200 |
| 2026-04-25 10:15 | 5.21 | 3000 | 29200 (1947) | 143 (1956) | 2420 | 208 | 281 | 465 | 540 | 1100 | 1970 | 2190 | 3600 | 11200 |
| 2026-04-25 09:15 | 5.11 | 2910 | 29200 (1947) | 143 (1956) | 2420 | 208 | 281 | 465 | 540 | 1100 | 1970 | 2190 | 3600 | 11200 |
| 2026-04-25 08:15 | 5.03 | 2840 | 29200 (1947) | 143 (1956) | 2420 | 208 | 281 | 465 | 540 | 1100 | 1970 | 2190 | 3600 | 11200 |
| 2026-04-25 07:15 | 4.95 | 2770 | 29200 (1947) | 143 (1956) | 2420 | 208 | 281 | 465 | 540 | 1100 | 1970 | 2190 | 3600 | 11200 |
| 2026-04-25 06:15 | 4.87 | 2700 | 29200 (1947) | 143 (1956) | 2420 | 208 | 281 | 465 | 540 | 1100 | 1970 | 2190 | 3600 | 11200 |
| 2026-04-25 05:15 | 4.79 | 2630 | 29200 (1947) | 143 (1956) | 2420 | 208 | 281 | 465 | 540 | 1100 | 1970 | 2190 | 3600 | 11200 |
| 2026-04-25 04:15 | 4.75 | 2590 | 29200 (1947) | 143 (1956) | 2420 | 208 | 281 | 465 | 540 | 1100 | 1970 | 2190 | 3600 | 11200 |
| 2026-04-25 03:15 | 4.71 | 2560 | 29200 (1947) | 143 (1956) | 2420 | 208 | 281 | 465 | 540 | 1100 | 1970 | 2190 | 3600 | 11200 |
| 2026-04-25 02:15 | 4.67 | 2530 | 29200 (1947) | 143 (1956) | 2420 | 208 | 281 | 465 | 540 | 1100 | 1970 | 2190 | 3600 | 11200 |
| 2026-04-25 01:15 | 4.66 | 2520 | 29200 (1947) | 143 (1956) | 2420 | 208 | 281 | 465 | 540 | 1100 | 1970 | 2190 | 3600 | 11200 |
| 2026-04-25 00:15 | 4.63 | 2490 | 29200 (1947) | 143 (1956) | 2420 | 208 | 281 | 465 | 540 | 1100 | 1970 | 2190 | 3600 | 11200 |
| 2026-04-24 23:15 | 4.61 | 2470 | 29200 (1947) | 143 (1956) | 2420 | 208 | 281 | 465 | 540 | 1100 | 1970 | 2190 | 3600 | 11200 |
| 2026-04-24 22:15 | 4.57 | 2440 | 12800 (2011) | 150 (1956) | 1690 | 213 | 268 | 427 | 507 | 985 | 2080 | 2340 | 3970 | 6320 |
| 2026-04-24 21:15 | 4.48 | 2360 | 12800 (2011) | 150 (1956) | 1690 | 213 | 268 | 427 | 507 | 985 | 2080 | 2340 | 3970 | 6320 |
| 2026-04-24 20:15 | 4.40 | 2290 | 12800 (2011) | 150 (1956) | 1690 | 213 | 268 | 427 | 507 | 985 | 2080 | 2340 | 3970 | 6320 |
| 2026-04-24 19:15 | 4.34 | 2230 | 12800 (2011) | 150 (1956) | 1690 | 213 | 268 | 427 | 507 | 985 | 2080 | 2340 | 3970 | 6320 |
| 2026-04-24 18:15 | 4.29 | 2190 | 12800 (2011) | 150 (1956) | 1690 | 213 | 268 | 427 | 507 | 985 | 2080 | 2340 | 3970 | 6320 |
| 2026-04-24 17:15 | 4.22 | 2130 | 12800 (2011) | 150 (1956) | 1690 | 213 | 268 | 427 | 507 | 985 | 2080 | 2340 | 3970 | 6320 |
| 2026-04-24 16:15 | 4.16 | 2070 | 12800 (2011) | 150 (1956) | 1690 | 213 | 268 | 427 | 507 | 985 | 2080 | 2340 | 3970 | 6320 |
| 2026-04-24 15:15 | 4.12 | 2040 | 12800 (2011) | 150 (1956) | 1690 | 213 | 268 | 427 | 507 | 985 | 2080 | 2340 | 3970 | 6320 |
| 2026-04-24 14:15 | 4.08 | 2000 | 12800 (2011) | 150 (1956) | 1690 | 213 | 268 | 427 | 507 | 985 | 2080 | 2340 | 3970 | 6320 |
| 2026-04-24 13:15 | 4.06 | 1980 | 12800 (2011) | 150 (1956) | 1690 | 213 | 268 | 427 | 507 | 985 | 2080 | 2340 | 3970 | 6320 |
| 2026-04-24 12:15 | 4.03 | 1960 | 12800 (2011) | 150 (1956) | 1690 | 213 | 268 | 427 | 507 | 985 | 2080 | 2340 | 3970 | 6320 |
| 2026-04-24 11:15 | 3.99 | 1920 | 12800 (2011) | 150 (1956) | 1690 | 213 | 268 | 427 | 507 | 985 | 2080 | 2340 | 3970 | 6320 |
| 2026-04-24 10:15 | 3.94 | 1880 | 12800 (2011) | 150 (1956) | 1690 | 213 | 268 | 427 | 507 | 985 | 2080 | 2340 | 3970 | 6320 |
| 2026-04-24 09:15 | 3.86 | 1810 | 12800 (2011) | 150 (1956) | 1690 | 213 | 268 | 427 | 507 | 985 | 2080 | 2340 | 3970 | 6320 |
| 2026-04-24 08:15 | 3.76 | 1730 | 12800 (2011) | 150 (1956) | 1690 | 213 | 268 | 427 | 507 | 985 | 2080 | 2340 | 3970 | 6320 |
| 2026-04-24 07:15 | 3.66 | 1650 | 12800 (2011) | 150 (1956) | 1690 | 213 | 268 | 427 | 507 | 985 | 2080 | 2340 | 3970 | 6320 |
| 2026-04-24 06:15 | 3.63 | 1630 | 12800 (2011) | 150 (1956) | 1690 | 213 | 268 | 427 | 507 | 985 | 2080 | 2340 | 3970 | 6320 |
| 2026-04-24 05:15 | 3.59 | 1590 | 12800 (2011) | 150 (1956) | 1690 | 213 | 268 | 427 | 507 | 985 | 2080 | 2340 | 3970 | 6320 |
| 2026-04-24 04:15 | 3.58 | 1590 | 12800 (2011) | 150 (1956) | 1690 | 213 | 268 | 427 | 507 | 985 | 2080 | 2340 | 3970 | 6320 |
| 2026-04-24 03:15 | 3.56 | 1570 | 12800 (2011) | 150 (1956) | 1690 | 213 | 268 | 427 | 507 | 985 | 2080 | 2340 | 3970 | 6320 |
| 2026-04-24 02:15 | 3.55 | 1560 | 12800 (2011) | 150 (1956) | 1690 | 213 | 268 | 427 | 507 | 985 | 2080 | 2340 | 3970 | 6320 |
| 2026-04-24 01:15 | 3.58 | 1590 | 12800 (2011) | 150 (1956) | 1690 | 213 | 268 | 427 | 507 | 985 | 2080 | 2340 | 3970 | 6320 |
| 2026-04-24 00:15 | 3.58 | 1590 | 12800 (2011) | 150 (1956) | 1690 | 213 | 268 | 427 | 507 | 985 | 2080 | 2340 | 3970 | 6320 |
| 2026-04-23 23:15 | 3.60 | 1600 | 12800 (2011) | 150 (1956) | 1690 | 213 | 268 | 427 | 507 | 985 | 2080 | 2340 | 3970 | 6320 |
| 2026-04-23 22:15 | 3.60 | 1600 | 14500 (2017) | 161 (1956) | 1560 | 208 | 285 | 423 | 467 | 884 | 1980 | 2210 | 3230 | 5120 |
| 2026-04-23 21:15 | 3.64 | 1630 | 14500 (2017) | 161 (1956) | 1560 | 208 | 285 | 423 | 467 | 884 | 1980 | 2210 | 3230 | 5120 |
| 2026-04-23 20:15 | 3.65 | 1640 | 14500 (2017) | 161 (1956) | 1560 | 208 | 285 | 423 | 467 | 884 | 1980 | 2210 | 3230 | 5120 |
| 2026-04-23 19:15 | 3.67 | 1660 | 14500 (2017) | 161 (1956) | 1560 | 208 | 285 | 423 | 467 | 884 | 1980 | 2210 | 3230 | 5120 |
| 2026-04-23 18:15 | 3.69 | 1670 | 14500 (2017) | 161 (1956) | 1560 | 208 | 285 | 423 | 467 | 884 | 1980 | 2210 | 3230 | 5120 |
| 2026-04-23 17:15 | 3.71 | 1690 | 14500 (2017) | 161 (1956) | 1560 | 208 | 285 | 423 | 467 | 884 | 1980 | 2210 | 3230 | 5120 |
| 2026-04-23 16:15 | 3.72 | 1700 | 14500 (2017) | 161 (1956) | 1560 | 208 | 285 | 423 | 467 | 884 | 1980 | 2210 | 3230 | 5120 |
| 2026-04-23 15:15 | 3.74 | 1710 | 14500 (2017) | 161 (1956) | 1560 | 208 | 285 | 423 | 467 | 884 | 1980 | 2210 | 3230 | 5120 |
| 2026-04-23 14:15 | 3.77 | 1740 | 14500 (2017) | 161 (1956) | 1560 | 208 | 285 | 423 | 467 | 884 | 1980 | 2210 | 3230 | 5120 |
| 2026-04-23 13:15 | 3.77 | 1740 | 14500 (2017) | 161 (1956) | 1560 | 208 | 285 | 423 | 467 | 884 | 1980 | 2210 | 3230 | 5120 |
| 2026-04-23 12:15 | 3.79 | 1760 | 14500 (2017) | 161 (1956) | 1560 | 208 | 285 | 423 | 467 | 884 | 1980 | 2210 | 3230 | 5120 |
| 2026-04-23 11:15 | 3.82 | 1780 | 14500 (2017) | 161 (1956) | 1560 | 208 | 285 | 423 | 467 | 884 | 1980 | 2210 | 3230 | 5120 |
| 2026-04-23 10:15 | 3.84 | 1800 | 14500 (2017) | 161 (1956) | 1560 | 208 | 285 | 423 | 467 | 884 | 1980 | 2210 | 3230 | 5120 |
| 2026-04-23 09:15 | 3.85 | 1800 | 14500 (2017) | 161 (1956) | 1560 | 208 | 285 | 423 | 467 | 884 | 1980 | 2210 | 3230 | 5120 |
| 2026-04-23 08:15 | 3.88 | 1830 | 14500 (2017) | 161 (1956) | 1560 | 208 | 285 | 423 | 467 | 884 | 1980 | 2210 | 3230 | 5120 |
| 2026-04-23 07:15 | 3.90 | 1850 | 14500 (2017) | 161 (1956) | 1560 | 208 | 285 | 423 | 467 | 884 | 1980 | 2210 | 3230 | 5120 |
| 2026-04-23 06:15 | 3.92 | 1860 | 14500 (2017) | 161 (1956) | 1560 | 208 | 285 | 423 | 467 | 884 | 1980 | 2210 | 3230 | 5120 |
| 2026-04-23 05:15 | 3.94 | 1880 | 14500 (2017) | 161 (1956) | 1560 | 208 | 285 | 423 | 467 | 884 | 1980 | 2210 | 3230 | 5120 |
| 2026-04-23 04:15 | 3.97 | 1910 | 14500 (2017) | 161 (1956) | 1560 | 208 | 285 | 423 | 467 | 884 | 1980 | 2210 | 3230 | 5120 |
| 2026-04-23 03:15 | 3.99 | 1920 | 14500 (2017) | 161 (1956) | 1560 | 208 | 285 | 423 | 467 | 884 | 1980 | 2210 | 3230 | 5120 |
| 2026-04-23 02:15 | 4.01 | 1940 | 14500 (2017) | 161 (1956) | 1560 | 208 | 285 | 423 | 467 | 884 | 1980 | 2210 | 3230 | 5120 |
| 2026-04-23 01:15 | 4.03 | 1960 | 14500 (2017) | 161 (1956) | 1560 | 208 | 285 | 423 | 467 | 884 | 1980 | 2210 | 3230 | 5120 |
| 2026-04-23 00:15 | 4.04 | 1970 | 14500 (2017) | 161 (1956) | 1560 | 208 | 285 | 423 | 467 | 884 | 1980 | 2210 | 3230 | 5120 |
| 2026-04-22 23:15 | 4.07 | 1990 | 14500 (2017) | 161 (1956) | 1560 | 208 | 285 | 423 | 467 | 884 | 1980 | 2210 | 3230 | 5120 |
| 2026-04-22 22:15 | 4.09 | 2010 | 7410 (1945) | 169 (2006) | 1560 | 214 | 291 | 430 | 465 | 914 | 1950 | 2190 | 4050 | 6540 |
| 2026-04-22 21:15 | 4.12 | 2040 | 7410 (1945) | 169 (2006) | 1560 | 214 | 291 | 430 | 465 | 914 | 1950 | 2190 | 4050 | 6540 |
| 2026-04-22 20:15 | 4.15 | 2060 | 7410 (1945) | 169 (2006) | 1560 | 214 | 291 | 430 | 465 | 914 | 1950 | 2190 | 4050 | 6540 |
| 2026-04-22 19:15 | 4.17 | 2080 | 7410 (1945) | 169 (2006) | 1560 | 214 | 291 | 430 | 465 | 914 | 1950 | 2190 | 4050 | 6540 |
| 2026-04-22 18:15 | 4.20 | 2110 | 7410 (1945) | 169 (2006) | 1560 | 214 | 291 | 430 | 465 | 914 | 1950 | 2190 | 4050 | 6540 |
| 2026-04-22 17:15 | 4.22 | 2130 | 7410 (1945) | 169 (2006) | 1560 | 214 | 291 | 430 | 465 | 914 | 1950 | 2190 | 4050 | 6540 |
| 2026-04-22 16:15 | 4.26 | 2160 | 7410 (1945) | 169 (2006) | 1560 | 214 | 291 | 430 | 465 | 914 | 1950 | 2190 | 4050 | 6540 |
| 2026-04-22 15:15 | 4.27 | 2170 | 7410 (1945) | 169 (2006) | 1560 | 214 | 291 | 430 | 465 | 914 | 1950 | 2190 | 4050 | 6540 |
| 2026-04-22 14:15 | 4.32 | 2220 | 7410 (1945) | 169 (2006) | 1560 | 214 | 291 | 430 | 465 | 914 | 1950 | 2190 | 4050 | 6540 |
| 2026-04-22 13:15 | 4.34 | 2230 | 7410 (1945) | 169 (2006) | 1560 | 214 | 291 | 430 | 465 | 914 | 1950 | 2190 | 4050 | 6540 |
| 2026-04-22 12:15 | 4.36 | 2250 | 7410 (1945) | 169 (2006) | 1560 | 214 | 291 | 430 | 465 | 914 | 1950 | 2190 | 4050 | 6540 |
| 2026-04-22 11:15 | 4.39 | 2280 | 7410 (1945) | 169 (2006) | 1560 | 214 | 291 | 430 | 465 | 914 | 1950 | 2190 | 4050 | 6540 |
| 2026-04-22 10:15 | 4.42 | 2310 | 7410 (1945) | 169 (2006) | 1560 | 214 | 291 | 430 | 465 | 914 | 1950 | 2190 | 4050 | 6540 |
| 2026-04-22 09:15 | 4.44 | 2330 | 7410 (1945) | 169 (2006) | 1560 | 214 | 291 | 430 | 465 | 914 | 1950 | 2190 | 4050 | 6540 |
| 2026-04-22 08:15 | 4.47 | 2360 | 7410 (1945) | 169 (2006) | 1560 | 214 | 291 | 430 | 465 | 914 | 1950 | 2190 | 4050 | 6540 |
| 2026-04-22 07:15 | 4.50 | 2380 | 7410 (1945) | 169 (2006) | 1560 | 214 | 291 | 430 | 465 | 914 | 1950 | 2190 | 4050 | 6540 |
| 2026-04-22 06:15 | 4.52 | 2400 | 7410 (1945) | 169 (2006) | 1560 | 214 | 291 | 430 | 465 | 914 | 1950 | 2190 | 4050 | 6540 |
| 2026-04-22 05:15 | 4.57 | 2440 | 7410 (1945) | 169 (2006) | 1560 | 214 | 291 | 430 | 465 | 914 | 1950 | 2190 | 4050 | 6540 |
| 2026-04-22 04:15 | 4.59 | 2460 | 7410 (1945) | 169 (2006) | 1560 | 214 | 291 | 430 | 465 | 914 | 1950 | 2190 | 4050 | 6540 |
| 2026-04-22 03:15 | 4.62 | 2480 | 7410 (1945) | 169 (2006) | 1560 | 214 | 291 | 430 | 465 | 914 | 1950 | 2190 | 4050 | 6540 |
| 2026-04-22 02:15 | 4.65 | 2510 | 7410 (1945) | 169 (2006) | 1560 | 214 | 291 | 430 | 465 | 914 | 1950 | 2190 | 4050 | 6540 |
| 2026-04-22 01:15 | 4.68 | 2530 | 7410 (1945) | 169 (2006) | 1560 | 214 | 291 | 430 | 465 | 914 | 1950 | 2190 | 4050 | 6540 |
| 2026-04-22 00:15 | 4.72 | 2570 | 7410 (1945) | 169 (2006) | 1560 | 214 | 291 | 430 | 465 | 914 | 1950 | 2190 | 4050 | 6540 |
| 2026-04-21 23:15 | 4.76 | 2600 | 7410 (1945) | 169 (2006) | 1560 | 214 | 291 | 430 | 465 | 914 | 1950 | 2190 | 4050 | 6540 |
| 2026-04-21 22:15 | 4.79 | 2630 | 11500 (1941) | 177 (2006) | 1650 | 223 | 286 | 447 | 487 | 1010 | 1750 | 2330 | 3510 | 6500 |
| 2026-04-21 21:15 | 4.83 | 2660 | 11500 (1941) | 177 (2006) | 1650 | 223 | 286 | 447 | 487 | 1010 | 1750 | 2330 | 3510 | 6500 |
| 2026-04-21 20:15 | 4.86 | 2690 | 11500 (1941) | 177 (2006) | 1650 | 223 | 286 | 447 | 487 | 1010 | 1750 | 2330 | 3510 | 6500 |
| 2026-04-21 19:15 | 4.90 | 2720 | 11500 (1941) | 177 (2006) | 1650 | 223 | 286 | 447 | 487 | 1010 | 1750 | 2330 | 3510 | 6500 |
| 2026-04-21 18:15 | 4.93 | 2750 | 11500 (1941) | 177 (2006) | 1650 | 223 | 286 | 447 | 487 | 1010 | 1750 | 2330 | 3510 | 6500 |
| 2026-04-21 17:15 | 4.98 | 2790 | 11500 (1941) | 177 (2006) | 1650 | 223 | 286 | 447 | 487 | 1010 | 1750 | 2330 | 3510 | 6500 |
| 2026-04-21 16:15 | 5.02 | 2830 | 11500 (1941) | 177 (2006) | 1650 | 223 | 286 | 447 | 487 | 1010 | 1750 | 2330 | 3510 | 6500 |
| 2026-04-21 15:15 | 5.05 | 2850 | 11500 (1941) | 177 (2006) | 1650 | 223 | 286 | 447 | 487 | 1010 | 1750 | 2330 | 3510 | 6500 |
| 2026-04-21 14:15 | 5.10 | 2900 | 11500 (1941) | 177 (2006) | 1650 | 223 | 286 | 447 | 487 | 1010 | 1750 | 2330 | 3510 | 6500 |
| 2026-04-21 13:15 | 5.14 | 2940 | 11500 (1941) | 177 (2006) | 1650 | 223 | 286 | 447 | 487 | 1010 | 1750 | 2330 | 3510 | 6500 |
| 2026-04-21 12:15 | 5.17 | 2960 | 11500 (1941) | 177 (2006) | 1650 | 223 | 286 | 447 | 487 | 1010 | 1750 | 2330 | 3510 | 6500 |
| 2026-04-21 11:15 | 5.22 | 3010 | 11500 (1941) | 177 (2006) | 1650 | 223 | 286 | 447 | 487 | 1010 | 1750 | 2330 | 3510 | 6500 |
| 2026-04-21 10:15 | 5.25 | 3040 | 11500 (1941) | 177 (2006) | 1650 | 223 | 286 | 447 | 487 | 1010 | 1750 | 2330 | 3510 | 6500 |
| 2026-04-21 09:15 | 5.30 | 3080 | 11500 (1941) | 177 (2006) | 1650 | 223 | 286 | 447 | 487 | 1010 | 1750 | 2330 | 3510 | 6500 |
| 2026-04-21 08:15 | 5.34 | 3120 | 11500 (1941) | 177 (2006) | 1650 | 223 | 286 | 447 | 487 | 1010 | 1750 | 2330 | 3510 | 6500 |
| 2026-04-21 07:15 | 5.39 | 3170 | 11500 (1941) | 177 (2006) | 1650 | 223 | 286 | 447 | 487 | 1010 | 1750 | 2330 | 3510 | 6500 |
| 2026-04-21 06:15 | 5.44 | 3210 | 11500 (1941) | 177 (2006) | 1650 | 223 | 286 | 447 | 487 | 1010 | 1750 | 2330 | 3510 | 6500 |
| 2026-04-21 05:15 | 5.48 | 3250 | 11500 (1941) | 177 (2006) | 1650 | 223 | 286 | 447 | 487 | 1010 | 1750 | 2330 | 3510 | 6500 |
| 2026-04-21 04:15 | 5.55 | 3320 | 11500 (1941) | 177 (2006) | 1650 | 223 | 286 | 447 | 487 | 1010 | 1750 | 2330 | 3510 | 6500 |
| 2026-04-21 03:15 | 5.60 | 3370 | 11500 (1941) | 177 (2006) | 1650 | 223 | 286 | 447 | 487 | 1010 | 1750 | 2330 | 3510 | 6500 |
| 2026-04-21 02:15 | 5.65 | 3410 | 11500 (1941) | 177 (2006) | 1650 | 223 | 286 | 447 | 487 | 1010 | 1750 | 2330 | 3510 | 6500 |
| 2026-04-21 01:15 | 5.70 | 3460 | 11500 (1941) | 177 (2006) | 1650 | 223 | 286 | 447 | 487 | 1010 | 1750 | 2330 | 3510 | 6500 |
| 2026-04-21 00:15 | 5.75 | 3510 | 11500 (1941) | 177 (2006) | 1650 | 223 | 286 | 447 | 487 | 1010 | 1750 | 2330 | 3510 | 6500 |
| 2026-04-20 23:15 | 5.82 | 3580 | 11500 (1941) | 177 (2006) | 1650 | 223 | 286 | 447 | 487 | 1010 | 1750 | 2330 | 3510 | 6500 |
| 2026-04-20 22:15 | 5.87 | 3630 | 41000 (1941) | 187 (2006) | 2190 | 231 | 306 | 459 | 511 | 981 | 1760 | 2540 | 3820 | 8570 |
| 2026-04-20 21:15 | 5.93 | 3690 | 41000 (1941) | 187 (2006) | 2190 | 231 | 306 | 459 | 511 | 981 | 1760 | 2540 | 3820 | 8570 |
| 2026-04-20 20:15 | 5.99 | 3750 | 41000 (1941) | 187 (2006) | 2190 | 231 | 306 | 459 | 511 | 981 | 1760 | 2540 | 3820 | 8570 |
| 2026-04-20 19:15 | 6.08 | 3840 | 41000 (1941) | 187 (2006) | 2190 | 231 | 306 | 459 | 511 | 981 | 1760 | 2540 | 3820 | 8570 |
| 2026-04-20 18:15 | 6.16 | 3920 | 41000 (1941) | 187 (2006) | 2190 | 231 | 306 | 459 | 511 | 981 | 1760 | 2540 | 3820 | 8570 |
| 2026-04-20 17:15 | 6.23 | 3990 | 41000 (1941) | 187 (2006) | 2190 | 231 | 306 | 459 | 511 | 981 | 1760 | 2540 | 3820 | 8570 |
| 2026-04-20 16:15 | 6.32 | 4070 | 41000 (1941) | 187 (2006) | 2190 | 231 | 306 | 459 | 511 | 981 | 1760 | 2540 | 3820 | 8570 |
| 2026-04-20 15:15 | 6.39 | 4140 | 41000 (1941) | 187 (2006) | 2190 | 231 | 306 | 459 | 511 | 981 | 1760 | 2540 | 3820 | 8570 |
| 2026-04-20 14:15 | 6.48 | 4230 | 41000 (1941) | 187 (2006) | 2190 | 231 | 306 | 459 | 511 | 981 | 1760 | 2540 | 3820 | 8570 |
| 2026-04-20 13:15 | 6.58 | 4320 | 41000 (1941) | 187 (2006) | 2190 | 231 | 306 | 459 | 511 | 981 | 1760 | 2540 | 3820 | 8570 |
| 2026-04-20 12:15 | 6.67 | 4410 | 41000 (1941) | 187 (2006) | 2190 | 231 | 306 | 459 | 511 | 981 | 1760 | 2540 | 3820 | 8570 |
| 2026-04-20 11:15 | 6.77 | 4510 | 41000 (1941) | 187 (2006) | 2190 | 231 | 306 | 459 | 511 | 981 | 1760 | 2540 | 3820 | 8570 |
| 2026-04-20 10:15 | 6.86 | 4600 | 41000 (1941) | 187 (2006) | 2190 | 231 | 306 | 459 | 511 | 981 | 1760 | 2540 | 3820 | 8570 |
| 2026-04-20 09:15 | 6.97 | 4710 | 41000 (1941) | 187 (2006) | 2190 | 231 | 306 | 459 | 511 | 981 | 1760 | 2540 | 3820 | 8570 |
| 2026-04-20 08:15 | 7.08 | 4820 | 41000 (1941) | 187 (2006) | 2190 | 231 | 306 | 459 | 511 | 981 | 1760 | 2540 | 3820 | 8570 |
| 2026-04-20 07:15 | 7.20 | 4940 | 41000 (1941) | 187 (2006) | 2190 | 231 | 306 | 459 | 511 | 981 | 1760 | 2540 | 3820 | 8570 |
| 2026-04-20 06:15 | 7.34 | 5090 | 41000 (1941) | 187 (2006) | 2190 | 231 | 306 | 459 | 511 | 981 | 1760 | 2540 | 3820 | 8570 |
| 2026-04-20 05:15 | 7.48 | 5230 | 41000 (1941) | 187 (2006) | 2190 | 231 | 306 | 459 | 511 | 981 | 1760 | 2540 | 3820 | 8570 |
| 2026-04-20 04:15 | 7.64 | 5400 | 41000 (1941) | 187 (2006) | 2190 | 231 | 306 | 459 | 511 | 981 | 1760 | 2540 | 3820 | 8570 |
| 2026-04-20 03:15 | 7.81 | 5580 | 41000 (1941) | 187 (2006) | 2190 | 231 | 306 | 459 | 511 | 981 | 1760 | 2540 | 3820 | 8570 |
| 2026-04-20 02:15 | 8.00 | 5790 | 41000 (1941) | 187 (2006) | 2190 | 231 | 306 | 459 | 511 | 981 | 1760 | 2540 | 3820 | 8570 |
| 2026-04-20 01:15 | 8.21 | 6020 | 41000 (1941) | 187 (2006) | 2190 | 231 | 306 | 459 | 511 | 981 | 1760 | 2540 | 3820 | 8570 |
| 2026-04-20 00:15 | 8.46 | 6300 | 41000 (1941) | 187 (2006) | 2190 | 231 | 306 | 459 | 511 | 981 | 1760 | 2540 | 3820 | 8570 |
| 2026-04-19 23:15 | 8.72 | 6600 | 41000 (1941) | 187 (2006) | 2190 | 231 | 306 | 459 | 511 | 981 | 1760 | 2540 | 3820 | 8570 |
| 2026-04-19 22:15 | 9.00 | 6970 | 23600 (1941) | 198 (2006) | 1820 | 247 | 306 | 468 | 505 | 1010 | 1860 | 2190 | 3800 | 5750 |
| 2026-04-19 21:15 | 9.31 | 7400 | 23600 (1941) | 198 (2006) | 1820 | 247 | 306 | 468 | 505 | 1010 | 1860 | 2190 | 3800 | 5750 |
| 2026-04-19 20:15 | 9.64 | 7870 | 23600 (1941) | 198 (2006) | 1820 | 247 | 306 | 468 | 505 | 1010 | 1860 | 2190 | 3800 | 5750 |
| 2026-04-19 19:15 | 9.94 | 8310 | 23600 (1941) | 198 (2006) | 1820 | 247 | 306 | 468 | 505 | 1010 | 1860 | 2190 | 3800 | 5750 |
| 2026-04-19 18:15 | 10.25 | 8770 | 23600 (1941) | 198 (2006) | 1820 | 247 | 306 | 468 | 505 | 1010 | 1860 | 2190 | 3800 | 5750 |
| 2026-04-19 17:15 | 10.55 | 9230 | 23600 (1941) | 198 (2006) | 1820 | 247 | 306 | 468 | 505 | 1010 | 1860 | 2190 | 3800 | 5750 |
| 2026-04-19 16:15 | 10.81 | 9630 | 23600 (1941) | 198 (2006) | 1820 | 247 | 306 | 468 | 505 | 1010 | 1860 | 2190 | 3800 | 5750 |
| 2026-04-19 15:15 | 11.03 | 9980 | 23600 (1941) | 198 (2006) | 1820 | 247 | 306 | 468 | 505 | 1010 | 1860 | 2190 | 3800 | 5750 |
| 2026-04-19 14:15 | 11.26 | 10300 | 23600 (1941) | 198 (2006) | 1820 | 247 | 306 | 468 | 505 | 1010 | 1860 | 2190 | 3800 | 5750 |
| 2026-04-19 13:15 | 11.48 | 10700 | 23600 (1941) | 198 (2006) | 1820 | 247 | 306 | 468 | 505 | 1010 | 1860 | 2190 | 3800 | 5750 |
| 2026-04-19 12:15 | 11.70 | 11100 | 23600 (1941) | 198 (2006) | 1820 | 247 | 306 | 468 | 505 | 1010 | 1860 | 2190 | 3800 | 5750 |
| 2026-04-19 11:15 | 11.93 | 11500 | 23600 (1941) | 198 (2006) | 1820 | 247 | 306 | 468 | 505 | 1010 | 1860 | 2190 | 3800 | 5750 |
| 2026-04-19 10:15 | 12.09 | 11700 | 23600 (1941) | 198 (2006) | 1820 | 247 | 306 | 468 | 505 | 1010 | 1860 | 2190 | 3800 | 5750 |
| 2026-04-19 09:15 | 12.26 | 12000 | 23600 (1941) | 198 (2006) | 1820 | 247 | 306 | 468 | 505 | 1010 | 1860 | 2190 | 3800 | 5750 |
| 2026-04-19 08:15 | 12.31 | 12100 | 23600 (1941) | 198 (2006) | 1820 | 247 | 306 | 468 | 505 | 1010 | 1860 | 2190 | 3800 | 5750 |
| 2026-04-19 07:15 | 12.28 | 12100 | 23600 (1941) | 198 (2006) | 1820 | 247 | 306 | 468 | 505 | 1010 | 1860 | 2190 | 3800 | 5750 |
| 2026-04-19 06:15 | 12.16 | 11800 | 23600 (1941) | 198 (2006) | 1820 | 247 | 306 | 468 | 505 | 1010 | 1860 | 2190 | 3800 | 5750 |
| 2026-04-19 05:15 | 12.00 | 11600 | 23600 (1941) | 198 (2006) | 1820 | 247 | 306 | 468 | 505 | 1010 | 1860 | 2190 | 3800 | 5750 |
| 2026-04-19 04:15 | 11.79 | 11200 | 23600 (1941) | 198 (2006) | 1820 | 247 | 306 | 468 | 505 | 1010 | 1860 | 2190 | 3800 | 5750 |
| 2026-04-19 03:15 | 11.56 | 10800 | 23600 (1941) | 198 (2006) | 1820 | 247 | 306 | 468 | 505 | 1010 | 1860 | 2190 | 3800 | 5750 |
| 2026-04-19 02:15 | 11.30 | 10400 | 23600 (1941) | 198 (2006) | 1820 | 247 | 306 | 468 | 505 | 1010 | 1860 | 2190 | 3800 | 5750 |
| 2026-04-19 01:15 | 11.01 | 9950 | 23600 (1941) | 198 (2006) | 1820 | 247 | 306 | 468 | 505 | 1010 | 1860 | 2190 | 3800 | 5750 |
| 2026-04-19 00:15 | 10.65 | 9380 | 23600 (1941) | 198 (2006) | 1820 | 247 | 306 | 468 | 505 | 1010 | 1860 | 2190 | 3800 | 5750 |
| 2026-04-18 23:15 | 10.32 | 8880 | 23600 (1941) | 198 (2006) | 1820 | 247 | 306 | 468 | 505 | 1010 | 1860 | 2190 | 3800 | 5750 |
| 2026-04-18 22:15 | 9.95 | 8320 | 15500 (1939) | 208 (2006) | 1770 | 253 | 318 | 484 | 513 | 1040 | 1920 | 2050 | 3540 | 6910 |
| 2026-04-18 21:15 | 9.63 | 7850 | 15500 (1939) | 208 (2006) | 1770 | 253 | 318 | 484 | 513 | 1040 | 1920 | 2050 | 3540 | 6910 |
| 2026-04-18 20:15 | 9.29 | 7370 | 15500 (1939) | 208 (2006) | 1770 | 253 | 318 | 484 | 513 | 1040 | 1920 | 2050 | 3540 | 6910 |
| 2026-04-18 19:15 | 9.00 | 6970 | 15500 (1939) | 208 (2006) | 1770 | 253 | 318 | 484 | 513 | 1040 | 1920 | 2050 | 3540 | 6910 |
| 2026-04-18 18:15 | 8.72 | 6600 | 15500 (1939) | 208 (2006) | 1770 | 253 | 318 | 484 | 513 | 1040 | 1920 | 2050 | 3540 | 6910 |
| 2026-04-18 17:15 | 8.46 | 6300 | 15500 (1939) | 208 (2006) | 1770 | 253 | 318 | 484 | 513 | 1040 | 1920 | 2050 | 3540 | 6910 |
| 2026-04-18 16:15 | 8.25 | 6070 | 15500 (1939) | 208 (2006) | 1770 | 253 | 318 | 484 | 513 | 1040 | 1920 | 2050 | 3540 | 6910 |
| 2026-04-18 15:15 | 8.10 | 5900 | 15500 (1939) | 208 (2006) | 1770 | 253 | 318 | 484 | 513 | 1040 | 1920 | 2050 | 3540 | 6910 |
| 2026-04-18 14:15 | 8.05 | 5850 | 15500 (1939) | 208 (2006) | 1770 | 253 | 318 | 484 | 513 | 1040 | 1920 | 2050 | 3540 | 6910 |
| 2026-04-18 13:15 | 8.11 | 5910 | 15500 (1939) | 208 (2006) | 1770 | 253 | 318 | 484 | 513 | 1040 | 1920 | 2050 | 3540 | 6910 |
| 2026-04-18 12:15 | 8.22 | 6030 | 15500 (1939) | 208 (2006) | 1770 | 253 | 318 | 484 | 513 | 1040 | 1920 | 2050 | 3540 | 6910 |
| 2026-04-18 11:15 | 8.35 | 6180 | 15500 (1939) | 208 (2006) | 1770 | 253 | 318 | 484 | 513 | 1040 | 1920 | 2050 | 3540 | 6910 |
| 2026-04-18 10:15 | 8.43 | 6270 | 15500 (1939) | 208 (2006) | 1770 | 253 | 318 | 484 | 513 | 1040 | 1920 | 2050 | 3540 | 6910 |
| 2026-04-18 09:15 | 8.46 | 6300 | 15500 (1939) | 208 (2006) | 1770 | 253 | 318 | 484 | 513 | 1040 | 1920 | 2050 | 3540 | 6910 |
| 2026-04-18 08:15 | 8.42 | 6260 | 15500 (1939) | 208 (2006) | 1770 | 253 | 318 | 484 | 513 | 1040 | 1920 | 2050 | 3540 | 6910 |
| 2026-04-18 07:15 | 8.30 | 6120 | 15500 (1939) | 208 (2006) | 1770 | 253 | 318 | 484 | 513 | 1040 | 1920 | 2050 | 3540 | 6910 |
| 2026-04-18 06:15 | 7.96 | 5750 | 15500 (1939) | 208 (2006) | 1770 | 253 | 318 | 484 | 513 | 1040 | 1920 | 2050 | 3540 | 6910 |
| 2026-04-18 05:15 | 7.27 | 5010 | 15500 (1939) | 208 (2006) | 1770 | 253 | 318 | 484 | 513 | 1040 | 1920 | 2050 | 3540 | 6910 |
| 2026-04-18 04:15 | 6.23 | 3990 | 15500 (1939) | 208 (2006) | 1770 | 253 | 318 | 484 | 513 | 1040 | 1920 | 2050 | 3540 | 6910 |
| 2026-04-18 03:15 | 5.05 | 2850 | 15500 (1939) | 208 (2006) | 1770 | 253 | 318 | 484 | 513 | 1040 | 1920 | 2050 | 3540 | 6910 |
| 2026-04-18 02:15 | 4.09 | 2010 | 15500 (1939) | 208 (2006) | 1770 | 253 | 318 | 484 | 513 | 1040 | 1920 | 2050 | 3540 | 6910 |
| 2026-04-18 01:15 | 3.47 | 1500 | 15500 (1939) | 208 (2006) | 1770 | 253 | 318 | 484 | 513 | 1040 | 1920 | 2050 | 3540 | 6910 |
| 2026-04-18 00:15 | 3.27 | 1350 | 15500 (1939) | 208 (2006) | 1770 | 253 | 318 | 484 | 513 | 1040 | 1920 | 2050 | 3540 | 6910 |
| 2026-04-17 23:15 | 3.18 | 1290 | 15500 (1939) | 208 (2006) | 1770 | 253 | 318 | 484 | 513 | 1040 | 1920 | 2050 | 3540 | 6910 |
| 2026-04-17 22:15 | 3.10 | 1230 | 15800 (1933) | 190 (1956) | 2050 | 265 | 325 | 477 | 538 | 1020 | 1950 | 2370 | 3660 | 13200 |
| 2026-04-17 21:15 | 3.05 | 1200 | 15800 (1933) | 190 (1956) | 2050 | 265 | 325 | 477 | 538 | 1020 | 1950 | 2370 | 3660 | 13200 |
| 2026-04-17 20:15 | 3.03 | 1180 | 15800 (1933) | 190 (1956) | 2050 | 265 | 325 | 477 | 538 | 1020 | 1950 | 2370 | 3660 | 13200 |
| 2026-04-17 19:15 | 2.99 | 1160 | 15800 (1933) | 190 (1956) | 2050 | 265 | 325 | 477 | 538 | 1020 | 1950 | 2370 | 3660 | 13200 |
| 2026-04-17 18:15 | 2.97 | 1140 | 15800 (1933) | 190 (1956) | 2050 | 265 | 325 | 477 | 538 | 1020 | 1950 | 2370 | 3660 | 13200 |
| 2026-04-17 17:15 | 2.94 | 1130 | 15800 (1933) | 190 (1956) | 2050 | 265 | 325 | 477 | 538 | 1020 | 1950 | 2370 | 3660 | 13200 |
| 2026-04-17 16:15 | 2.93 | 1120 | 15800 (1933) | 190 (1956) | 2050 | 265 | 325 | 477 | 538 | 1020 | 1950 | 2370 | 3660 | 13200 |
| 2026-04-17 15:15 | 2.92 | 1110 | 15800 (1933) | 190 (1956) | 2050 | 265 | 325 | 477 | 538 | 1020 | 1950 | 2370 | 3660 | 13200 |
| 2026-04-17 14:15 | 2.93 | 1120 | 15800 (1933) | 190 (1956) | 2050 | 265 | 325 | 477 | 538 | 1020 | 1950 | 2370 | 3660 | 13200 |
| 2026-04-17 13:15 | 2.96 | 1140 | 15800 (1933) | 190 (1956) | 2050 | 265 | 325 | 477 | 538 | 1020 | 1950 | 2370 | 3660 | 13200 |
| 2026-04-17 12:15 | 2.96 | 1140 | 15800 (1933) | 190 (1956) | 2050 | 265 | 325 | 477 | 538 | 1020 | 1950 | 2370 | 3660 | 13200 |
| 2026-04-17 11:15 | 2.98 | 1150 | 15800 (1933) | 190 (1956) | 2050 | 265 | 325 | 477 | 538 | 1020 | 1950 | 2370 | 3660 | 13200 |
| 2026-04-17 10:15 | 2.99 | 1160 | 15800 (1933) | 190 (1956) | 2050 | 265 | 325 | 477 | 538 | 1020 | 1950 | 2370 | 3660 | 13200 |
| 2026-04-17 09:15 | 3.01 | 1170 | 15800 (1933) | 190 (1956) | 2050 | 265 | 325 | 477 | 538 | 1020 | 1950 | 2370 | 3660 | 13200 |
| 2026-04-17 08:15 | 3.01 | 1170 | 15800 (1933) | 190 (1956) | 2050 | 265 | 325 | 477 | 538 | 1020 | 1950 | 2370 | 3660 | 13200 |
| 2026-04-17 07:15 | 3.00 | 1160 | 15800 (1933) | 190 (1956) | 2050 | 265 | 325 | 477 | 538 | 1020 | 1950 | 2370 | 3660 | 13200 |
| 2026-04-17 06:15 | 2.97 | 1140 | 15800 (1933) | 190 (1956) | 2050 | 265 | 325 | 477 | 538 | 1020 | 1950 | 2370 | 3660 | 13200 |
| 2026-04-17 05:15 | 2.93 | 1120 | 15800 (1933) | 190 (1956) | 2050 | 265 | 325 | 477 | 538 | 1020 | 1950 | 2370 | 3660 | 13200 |
| 2026-04-17 04:15 | 2.90 | 1100 | 15800 (1933) | 190 (1956) | 2050 | 265 | 325 | 477 | 538 | 1020 | 1950 | 2370 | 3660 | 13200 |
| 2026-04-17 03:15 | 2.85 | 1070 | 15800 (1933) | 190 (1956) | 2050 | 265 | 325 | 477 | 538 | 1020 | 1950 | 2370 | 3660 | 13200 |
| 2026-04-17 02:15 | 2.79 | 1030 | 15800 (1933) | 190 (1956) | 2050 | 265 | 325 | 477 | 538 | 1020 | 1950 | 2370 | 3660 | 13200 |
| 2026-04-17 01:15 | 2.71 | 980 | 15800 (1933) | 190 (1956) | 2050 | 265 | 325 | 477 | 538 | 1020 | 1950 | 2370 | 3660 | 13200 |
| 2026-04-17 00:15 | 2.67 | 956 | 15800 (1933) | 190 (1956) | 2050 | 265 | 325 | 477 | 538 | 1020 | 1950 | 2370 | 3660 | 13200 |
| 2026-04-16 23:15 | 2.67 | 956 | 15800 (1933) | 190 (1956) | 2050 | 265 | 325 | 477 | 538 | 1020 | 1950 | 2370 | 3660 | 13200 |
| 2026-04-16 22:15 | 2.70 | 974 | 33200 (1945) | 153 (1956) | 2250 | 252 | 321 | 500 | 545 | 1080 | 2150 | 2350 | 4750 | 7180 |
| 2026-04-16 21:15 | 2.75 | 1000 | 33200 (1945) | 153 (1956) | 2250 | 252 | 321 | 500 | 545 | 1080 | 2150 | 2350 | 4750 | 7180 |
| 2026-04-16 20:15 | 2.80 | 1040 | 33200 (1945) | 153 (1956) | 2250 | 252 | 321 | 500 | 545 | 1080 | 2150 | 2350 | 4750 | 7180 |
| 2026-04-16 19:15 | 2.85 | 1070 | 33200 (1945) | 153 (1956) | 2250 | 252 | 321 | 500 | 545 | 1080 | 2150 | 2350 | 4750 | 7180 |
| 2026-04-16 18:15 | 2.93 | 1120 | 33200 (1945) | 153 (1956) | 2250 | 252 | 321 | 500 | 545 | 1080 | 2150 | 2350 | 4750 | 7180 |
| 2026-04-16 17:15 | 2.98 | 1150 | 33200 (1945) | 153 (1956) | 2250 | 252 | 321 | 500 | 545 | 1080 | 2150 | 2350 | 4750 | 7180 |
| 2026-04-16 16:15 | 3.07 | 1210 | 33200 (1945) | 153 (1956) | 2250 | 252 | 321 | 500 | 545 | 1080 | 2150 | 2350 | 4750 | 7180 |
| 2026-04-16 15:15 | 3.13 | 1250 | 33200 (1945) | 153 (1956) | 2250 | 252 | 321 | 500 | 545 | 1080 | 2150 | 2350 | 4750 | 7180 |
| 2026-04-16 14:15 | 3.20 | 1300 | 33200 (1945) | 153 (1956) | 2250 | 252 | 321 | 500 | 545 | 1080 | 2150 | 2350 | 4750 | 7180 |
| 2026-04-16 13:15 | 3.26 | 1350 | 33200 (1945) | 153 (1956) | 2250 | 252 | 321 | 500 | 545 | 1080 | 2150 | 2350 | 4750 | 7180 |
| 2026-04-16 12:15 | 3.32 | 1390 | 33200 (1945) | 153 (1956) | 2250 | 252 | 321 | 500 | 545 | 1080 | 2150 | 2350 | 4750 | 7180 |
| 2026-04-16 11:15 | 3.41 | 1460 | 33200 (1945) | 153 (1956) | 2250 | 252 | 321 | 500 | 545 | 1080 | 2150 | 2350 | 4750 | 7180 |
| 2026-04-16 10:15 | 3.50 | 1520 | 33200 (1945) | 153 (1956) | 2250 | 252 | 321 | 500 | 545 | 1080 | 2150 | 2350 | 4750 | 7180 |
| 2026-04-16 09:15 | 3.63 | 1630 | 33200 (1945) | 153 (1956) | 2250 | 252 | 321 | 500 | 545 | 1080 | 2150 | 2350 | 4750 | 7180 |
| 2026-04-16 08:15 | 3.78 | 1750 | 33200 (1945) | 153 (1956) | 2250 | 252 | 321 | 500 | 545 | 1080 | 2150 | 2350 | 4750 | 7180 |
| 2026-04-16 07:15 | 3.99 | 1920 | 33200 (1945) | 153 (1956) | 2250 | 252 | 321 | 500 | 545 | 1080 | 2150 | 2350 | 4750 | 7180 |
| 2026-04-16 06:15 | 4.22 | 2130 | 33200 (1945) | 153 (1956) | 2250 | 252 | 321 | 500 | 545 | 1080 | 2150 | 2350 | 4750 | 7180 |
| 2026-04-16 05:15 | 4.51 | 2390 | 33200 (1945) | 153 (1956) | 2250 | 252 | 321 | 500 | 545 | 1080 | 2150 | 2350 | 4750 | 7180 |
| 2026-04-16 04:15 | 4.79 | 2630 | 33200 (1945) | 153 (1956) | 2250 | 252 | 321 | 500 | 545 | 1080 | 2150 | 2350 | 4750 | 7180 |
| 2026-04-16 03:15 | 4.94 | 2760 | 33200 (1945) | 153 (1956) | 2250 | 252 | 321 | 500 | 545 | 1080 | 2150 | 2350 | 4750 | 7180 |
| 2026-04-16 02:15 | 4.84 | 2670 | 33200 (1945) | 153 (1956) | 2250 | 252 | 321 | 500 | 545 | 1080 | 2150 | 2350 | 4750 | 7180 |
| 2026-04-16 01:15 | 4.27 | 2170 | 33200 (1945) | 153 (1956) | 2250 | 252 | 321 | 500 | 545 | 1080 | 2150 | 2350 | 4750 | 7180 |
| 2026-04-16 00:15 | 3.41 | 1460 | 33200 (1945) | 153 (1956) | 2250 | 252 | 321 | 500 | 545 | 1080 | 2150 | 2350 | 4750 | 7180 |
| 2026-04-15 23:15 | 2.71 | 980 | 33200 (1945) | 153 (1956) | 2250 | 252 | 321 | 500 | 545 | 1080 | 2150 | 2350 | 4750 | 7180 |
| 2026-04-15 22:15 | 2.16 | 671 | 46200 (1945) | 133 (1956) | 2240 | 251 | 333 | 505 | 603 | 1030 | 2210 | 2410 | 3120 | 7330 |
| 2026-04-15 21:15 | 1.97 | 577 | 46200 (1945) | 133 (1956) | 2240 | 251 | 333 | 505 | 603 | 1030 | 2210 | 2410 | 3120 | 7330 |
| 2026-04-15 20:15 | 1.86 | 526 | 46200 (1945) | 133 (1956) | 2240 | 251 | 333 | 505 | 603 | 1030 | 2210 | 2410 | 3120 | 7330 |
| 2026-04-15 19:15 | 1.87 | 531 | 46200 (1945) | 133 (1956) | 2240 | 251 | 333 | 505 | 603 | 1030 | 2210 | 2410 | 3120 | 7330 |
| 2026-04-15 18:15 | 1.80 | 499 | 46200 (1945) | 133 (1956) | 2240 | 251 | 333 | 505 | 603 | 1030 | 2210 | 2410 | 3120 | 7330 |
| 2026-04-15 17:15 | 1.81 | 503 | 46200 (1945) | 133 (1956) | 2240 | 251 | 333 | 505 | 603 | 1030 | 2210 | 2410 | 3120 | 7330 |
| 2026-04-15 16:15 | 1.81 | 503 | 46200 (1945) | 133 (1956) | 2240 | 251 | 333 | 505 | 603 | 1030 | 2210 | 2410 | 3120 | 7330 |
| 2026-04-15 15:15 | 1.82 | 508 | 46200 (1945) | 133 (1956) | 2240 | 251 | 333 | 505 | 603 | 1030 | 2210 | 2410 | 3120 | 7330 |
| 2026-04-15 14:15 | 1.83 | 512 | 46200 (1945) | 133 (1956) | 2240 | 251 | 333 | 505 | 603 | 1030 | 2210 | 2410 | 3120 | 7330 |
| 2026-04-15 13:15 | 1.82 | 508 | 46200 (1945) | 133 (1956) | 2240 | 251 | 333 | 505 | 603 | 1030 | 2210 | 2410 | 3120 | 7330 |
| 2026-04-15 12:15 | 1.83 | 512 | 46200 (1945) | 133 (1956) | 2240 | 251 | 333 | 505 | 603 | 1030 | 2210 | 2410 | 3120 | 7330 |
| 2026-04-15 11:15 | 1.84 | 517 | 46200 (1945) | 133 (1956) | 2240 | 251 | 333 | 505 | 603 | 1030 | 2210 | 2410 | 3120 | 7330 |
| 2026-04-15 10:15 | 1.84 | 517 | 46200 (1945) | 133 (1956) | 2240 | 251 | 333 | 505 | 603 | 1030 | 2210 | 2410 | 3120 | 7330 |
| 2026-04-15 09:15 | 1.84 | 517 | 46200 (1945) | 133 (1956) | 2240 | 251 | 333 | 505 | 603 | 1030 | 2210 | 2410 | 3120 | 7330 |
| 2026-04-15 08:15 | 1.83 | 512 | 46200 (1945) | 133 (1956) | 2240 | 251 | 333 | 505 | 603 | 1030 | 2210 | 2410 | 3120 | 7330 |
| 2026-04-15 07:15 | 1.84 | 517 | 46200 (1945) | 133 (1956) | 2240 | 251 | 333 | 505 | 603 | 1030 | 2210 | 2410 | 3120 | 7330 |
| 2026-04-15 06:15 | 1.84 | 517 | 46200 (1945) | 133 (1956) | 2240 | 251 | 333 | 505 | 603 | 1030 | 2210 | 2410 | 3120 | 7330 |
| 2026-04-15 05:15 | 1.85 | 522 | 46200 (1945) | 133 (1956) | 2240 | 251 | 333 | 505 | 603 | 1030 | 2210 | 2410 | 3120 | 7330 |
| 2026-04-15 04:15 | 1.85 | 522 | 46200 (1945) | 133 (1956) | 2240 | 251 | 333 | 505 | 603 | 1030 | 2210 | 2410 | 3120 | 7330 |
| 2026-04-15 03:15 | 1.84 | 517 | 46200 (1945) | 133 (1956) | 2240 | 251 | 333 | 505 | 603 | 1030 | 2210 | 2410 | 3120 | 7330 |
| 2026-04-15 02:15 | 1.85 | 522 | 46200 (1945) | 133 (1956) | 2240 | 251 | 333 | 505 | 603 | 1030 | 2210 | 2410 | 3120 | 7330 |
| 2026-04-15 01:15 | 1.86 | 526 | 46200 (1945) | 133 (1956) | 2240 | 251 | 333 | 505 | 603 | 1030 | 2210 | 2410 | 3120 | 7330 |
| 2026-04-15 00:15 | 1.86 | 526 | 46200 (1945) | 133 (1956) | 2240 | 251 | 333 | 505 | 603 | 1030 | 2210 | 2410 | 3120 | 7330 |
| 2026-04-14 23:15 | 1.85 | 522 | 46200 (1945) | 133 (1956) | 2240 | 251 | 333 | 505 | 603 | 1030 | 2210 | 2410 | 3120 | 7330 |
| 2026-04-14 22:15 | 1.86 | 526 | 55500 (1945) | 117 (1956) | 2380 | 237 | 348 | 482 | 601 | 960 | 1910 | 2280 | 3890 | 7060 |
| 2026-04-14 21:15 | 1.85 | 522 | 55500 (1945) | 117 (1956) | 2380 | 237 | 348 | 482 | 601 | 960 | 1910 | 2280 | 3890 | 7060 |
| 2026-04-14 20:15 | 1.87 | 531 | 55500 (1945) | 117 (1956) | 2380 | 237 | 348 | 482 | 601 | 960 | 1910 | 2280 | 3890 | 7060 |
| 2026-04-14 19:15 | 1.87 | 531 | 55500 (1945) | 117 (1956) | 2380 | 237 | 348 | 482 | 601 | 960 | 1910 | 2280 | 3890 | 7060 |
| 2026-04-14 18:15 | 1.88 | 535 | 55500 (1945) | 117 (1956) | 2380 | 237 | 348 | 482 | 601 | 960 | 1910 | 2280 | 3890 | 7060 |
| 2026-04-14 17:15 | 1.89 | 540 | 55500 (1945) | 117 (1956) | 2380 | 237 | 348 | 482 | 601 | 960 | 1910 | 2280 | 3890 | 7060 |
| 2026-04-14 16:15 | 1.89 | 540 | 55500 (1945) | 117 (1956) | 2380 | 237 | 348 | 482 | 601 | 960 | 1910 | 2280 | 3890 | 7060 |
| 2026-04-14 15:15 | 1.89 | 540 | 55500 (1945) | 117 (1956) | 2380 | 237 | 348 | 482 | 601 | 960 | 1910 | 2280 | 3890 | 7060 |
| 2026-04-14 14:15 | 1.90 | 545 | 55500 (1945) | 117 (1956) | 2380 | 237 | 348 | 482 | 601 | 960 | 1910 | 2280 | 3890 | 7060 |
| 2026-04-14 13:15 | 1.90 | 545 | 55500 (1945) | 117 (1956) | 2380 | 237 | 348 | 482 | 601 | 960 | 1910 | 2280 | 3890 | 7060 |
| 2026-04-14 12:15 | 1.91 | 549 | 55500 (1945) | 117 (1956) | 2380 | 237 | 348 | 482 | 601 | 960 | 1910 | 2280 | 3890 | 7060 |
| 2026-04-14 11:15 | 1.91 | 549 | 55500 (1945) | 117 (1956) | 2380 | 237 | 348 | 482 | 601 | 960 | 1910 | 2280 | 3890 | 7060 |
| 2026-04-14 10:15 | 1.91 | 549 | 55500 (1945) | 117 (1956) | 2380 | 237 | 348 | 482 | 601 | 960 | 1910 | 2280 | 3890 | 7060 |
| 2026-04-14 09:15 | 1.91 | 549 | 55500 (1945) | 117 (1956) | 2380 | 237 | 348 | 482 | 601 | 960 | 1910 | 2280 | 3890 | 7060 |
| 2026-04-14 08:15 | 1.92 | 554 | 55500 (1945) | 117 (1956) | 2380 | 237 | 348 | 482 | 601 | 960 | 1910 | 2280 | 3890 | 7060 |
| 2026-04-14 07:15 | 1.92 | 554 | 55500 (1945) | 117 (1956) | 2380 | 237 | 348 | 482 | 601 | 960 | 1910 | 2280 | 3890 | 7060 |
| 2026-04-14 06:15 | 1.93 | 559 | 55500 (1945) | 117 (1956) | 2380 | 237 | 348 | 482 | 601 | 960 | 1910 | 2280 | 3890 | 7060 |
| 2026-04-14 05:15 | 1.94 | 563 | 55500 (1945) | 117 (1956) | 2380 | 237 | 348 | 482 | 601 | 960 | 1910 | 2280 | 3890 | 7060 |
| 2026-04-14 04:15 | 1.93 | 559 | 55500 (1945) | 117 (1956) | 2380 | 237 | 348 | 482 | 601 | 960 | 1910 | 2280 | 3890 | 7060 |
| 2026-04-14 03:15 | 1.94 | 563 | 55500 (1945) | 117 (1956) | 2380 | 237 | 348 | 482 | 601 | 960 | 1910 | 2280 | 3890 | 7060 |
| 2026-04-14 02:15 | 1.96 | 573 | 55500 (1945) | 117 (1956) | 2380 | 237 | 348 | 482 | 601 | 960 | 1910 | 2280 | 3890 | 7060 |
| 2026-04-14 01:15 | 1.95 | 568 | 55500 (1945) | 117 (1956) | 2380 | 237 | 348 | 482 | 601 | 960 | 1910 | 2280 | 3890 | 7060 |
| 2026-04-14 00:15 | 1.96 | 573 | 55500 (1945) | 117 (1956) | 2380 | 237 | 348 | 482 | 601 | 960 | 1910 | 2280 | 3890 | 7060 |
| 2026-04-13 23:15 | 1.96 | 573 | 55500 (1945) | 117 (1956) | 2380 | 237 | 348 | 482 | 601 | 960 | 1910 | 2280 | 3890 | 7060 |
| 2026-04-13 22:15 | 1.96 | 573 | 17500 (1945) | 110 (1956) | 1940 | 242 | 349 | 496 | 594 | 974 | 2000 | 2520 | 6020 | 7010 |
| 2026-04-13 21:15 | 1.96 | 573 | 17500 (1945) | 110 (1956) | 1940 | 242 | 349 | 496 | 594 | 974 | 2000 | 2520 | 6020 | 7010 |
| 2026-04-13 20:15 | 1.97 | 577 | 17500 (1945) | 110 (1956) | 1940 | 242 | 349 | 496 | 594 | 974 | 2000 | 2520 | 6020 | 7010 |
| 2026-04-13 19:15 | 1.97 | 577 | 17500 (1945) | 110 (1956) | 1940 | 242 | 349 | 496 | 594 | 974 | 2000 | 2520 | 6020 | 7010 |
| 2026-04-13 18:15 | 1.98 | 582 | 17500 (1945) | 110 (1956) | 1940 | 242 | 349 | 496 | 594 | 974 | 2000 | 2520 | 6020 | 7010 |
| 2026-04-13 17:15 | 1.99 | 587 | 17500 (1945) | 110 (1956) | 1940 | 242 | 349 | 496 | 594 | 974 | 2000 | 2520 | 6020 | 7010 |
| 2026-04-13 16:15 | 1.98 | 582 | 17500 (1945) | 110 (1956) | 1940 | 242 | 349 | 496 | 594 | 974 | 2000 | 2520 | 6020 | 7010 |
| 2026-04-13 15:15 | 2.01 | 597 | 17500 (1945) | 110 (1956) | 1940 | 242 | 349 | 496 | 594 | 974 | 2000 | 2520 | 6020 | 7010 |
| 2026-04-13 14:15 | 2.00 | 592 | 17500 (1945) | 110 (1956) | 1940 | 242 | 349 | 496 | 594 | 974 | 2000 | 2520 | 6020 | 7010 |
| 2026-04-13 13:15 | 2.00 | 592 | 17500 (1945) | 110 (1956) | 1940 | 242 | 349 | 496 | 594 | 974 | 2000 | 2520 | 6020 | 7010 |
| 2026-04-13 12:15 | 2.01 | 597 | 17500 (1945) | 110 (1956) | 1940 | 242 | 349 | 496 | 594 | 974 | 2000 | 2520 | 6020 | 7010 |
| 2026-04-13 11:15 | 1.99 | 587 | 17500 (1945) | 110 (1956) | 1940 | 242 | 349 | 496 | 594 | 974 | 2000 | 2520 | 6020 | 7010 |
| 2026-04-13 10:15 | 2.00 | 592 | 17500 (1945) | 110 (1956) | 1940 | 242 | 349 | 496 | 594 | 974 | 2000 | 2520 | 6020 | 7010 |
| 2026-04-13 09:15 | 2.00 | 592 | 17500 (1945) | 110 (1956) | 1940 | 242 | 349 | 496 | 594 | 974 | 2000 | 2520 | 6020 | 7010 |
| 2026-04-13 08:15 | 2.01 | 597 | 17500 (1945) | 110 (1956) | 1940 | 242 | 349 | 496 | 594 | 974 | 2000 | 2520 | 6020 | 7010 |
| 2026-04-13 07:15 | 2.00 | 592 | 17500 (1945) | 110 (1956) | 1940 | 242 | 349 | 496 | 594 | 974 | 2000 | 2520 | 6020 | 7010 |
| 2026-04-13 06:15 | 2.02 | 602 | 17500 (1945) | 110 (1956) | 1940 | 242 | 349 | 496 | 594 | 974 | 2000 | 2520 | 6020 | 7010 |
| 2026-04-13 05:15 | 2.01 | 597 | 17500 (1945) | 110 (1956) | 1940 | 242 | 349 | 496 | 594 | 974 | 2000 | 2520 | 6020 | 7010 |
| 2026-04-13 04:15 | 2.01 | 597 | 17500 (1945) | 110 (1956) | 1940 | 242 | 349 | 496 | 594 | 974 | 2000 | 2520 | 6020 | 7010 |
| 2026-04-13 03:15 | 2.01 | 597 | 17500 (1945) | 110 (1956) | 1940 | 242 | 349 | 496 | 594 | 974 | 2000 | 2520 | 6020 | 7010 |
| 2026-04-13 02:15 | 2.02 | 602 | 17500 (1945) | 110 (1956) | 1940 | 242 | 349 | 496 | 594 | 974 | 2000 | 2520 | 6020 | 7010 |
| 2026-04-13 01:15 | 2.02 | 602 | 17500 (1945) | 110 (1956) | 1940 | 242 | 349 | 496 | 594 | 974 | 2000 | 2520 | 6020 | 7010 |
| 2026-04-13 00:15 | 2.02 | 602 | 17500 (1945) | 110 (1956) | 1940 | 242 | 349 | 496 | 594 | 974 | 2000 | 2520 | 6020 | 7010 |
| 2026-04-12 23:15 | 2.03 | 606 | 17500 (1945) | 110 (1956) | 1940 | 242 | 349 | 496 | 594 | 974 | 2000 | 2520 | 6020 | 7010 |
| 2026-04-12 22:15 | 2.04 | 611 | 18100 (2008) | 106 (1956) | 1870 | 254 | 346 | 504 | 546 | 1030 | 2010 | 2730 | 4350 | 5460 |
| 2026-04-12 21:15 | 2.03 | 606 | 18100 (2008) | 106 (1956) | 1870 | 254 | 346 | 504 | 546 | 1030 | 2010 | 2730 | 4350 | 5460 |
| 2026-04-12 20:15 | 2.03 | 606 | 18100 (2008) | 106 (1956) | 1870 | 254 | 346 | 504 | 546 | 1030 | 2010 | 2730 | 4350 | 5460 |
| 2026-04-12 19:15 | 2.03 | 606 | 18100 (2008) | 106 (1956) | 1870 | 254 | 346 | 504 | 546 | 1030 | 2010 | 2730 | 4350 | 5460 |
| 2026-04-12 18:15 | 2.04 | 611 | 18100 (2008) | 106 (1956) | 1870 | 254 | 346 | 504 | 546 | 1030 | 2010 | 2730 | 4350 | 5460 |
| 2026-04-12 17:15 | 2.02 | 602 | 18100 (2008) | 106 (1956) | 1870 | 254 | 346 | 504 | 546 | 1030 | 2010 | 2730 | 4350 | 5460 |
| 2026-04-12 16:15 | 2.03 | 606 | 18100 (2008) | 106 (1956) | 1870 | 254 | 346 | 504 | 546 | 1030 | 2010 | 2730 | 4350 | 5460 |
| 2026-04-12 15:15 | 2.03 | 606 | 18100 (2008) | 106 (1956) | 1870 | 254 | 346 | 504 | 546 | 1030 | 2010 | 2730 | 4350 | 5460 |
| 2026-04-12 14:15 | 2.02 | 602 | 18100 (2008) | 106 (1956) | 1870 | 254 | 346 | 504 | 546 | 1030 | 2010 | 2730 | 4350 | 5460 |
| 2026-04-12 13:15 | 2.02 | 602 | 18100 (2008) | 106 (1956) | 1870 | 254 | 346 | 504 | 546 | 1030 | 2010 | 2730 | 4350 | 5460 |
| 2026-04-12 12:15 | 2.02 | 602 | 18100 (2008) | 106 (1956) | 1870 | 254 | 346 | 504 | 546 | 1030 | 2010 | 2730 | 4350 | 5460 |
| 2026-04-12 11:15 | 2.03 | 606 | 18100 (2008) | 106 (1956) | 1870 | 254 | 346 | 504 | 546 | 1030 | 2010 | 2730 | 4350 | 5460 |
| 2026-04-12 10:15 | 2.02 | 602 | 18100 (2008) | 106 (1956) | 1870 | 254 | 346 | 504 | 546 | 1030 | 2010 | 2730 | 4350 | 5460 |
| 2026-04-12 09:15 | 2.00 | 592 | 18100 (2008) | 106 (1956) | 1870 | 254 | 346 | 504 | 546 | 1030 | 2010 | 2730 | 4350 | 5460 |
| 2026-04-12 08:15 | 2.02 | 602 | 18100 (2008) | 106 (1956) | 1870 | 254 | 346 | 504 | 546 | 1030 | 2010 | 2730 | 4350 | 5460 |
| 2026-04-12 07:15 | 2.01 | 597 | 18100 (2008) | 106 (1956) | 1870 | 254 | 346 | 504 | 546 | 1030 | 2010 | 2730 | 4350 | 5460 |
| 2026-04-12 06:15 | 2.01 | 597 | 18100 (2008) | 106 (1956) | 1870 | 254 | 346 | 504 | 546 | 1030 | 2010 | 2730 | 4350 | 5460 |
| 2026-04-12 05:15 | 2.02 | 602 | 18100 (2008) | 106 (1956) | 1870 | 254 | 346 | 504 | 546 | 1030 | 2010 | 2730 | 4350 | 5460 |
| 2026-04-12 04:15 | 2.03 | 606 | 18100 (2008) | 106 (1956) | 1870 | 254 | 346 | 504 | 546 | 1030 | 2010 | 2730 | 4350 | 5460 |
| 2026-04-12 03:15 | 2.02 | 602 | 18100 (2008) | 106 (1956) | 1870 | 254 | 346 | 504 | 546 | 1030 | 2010 | 2730 | 4350 | 5460 |
| 2026-04-12 02:15 | 2.03 | 606 | 18100 (2008) | 106 (1956) | 1870 | 254 | 346 | 504 | 546 | 1030 | 2010 | 2730 | 4350 | 5460 |
| 2026-04-12 01:15 | 2.03 | 606 | 18100 (2008) | 106 (1956) | 1870 | 254 | 346 | 504 | 546 | 1030 | 2010 | 2730 | 4350 | 5460 |
| 2026-04-12 00:15 | 2.03 | 606 | 18100 (2008) | 106 (1956) | 1870 | 254 | 346 | 504 | 546 | 1030 | 2010 | 2730 | 4350 | 5460 |
| 2026-04-11 23:15 | 2.03 | 606 | 18100 (2008) | 106 (1956) | 1870 | 254 | 346 | 504 | 546 | 1030 | 2010 | 2730 | 4350 | 5460 |
| 2026-04-11 22:15 | 2.02 | 602 | 33600 (2008) | 130 (1956) | 2030 | 260 | 352 | 460 | 544 | 1110 | 1880 | 2320 | 3590 | 7000 |
| 2026-04-11 21:15 | 2.04 | 611 | 33600 (2008) | 130 (1956) | 2030 | 260 | 352 | 460 | 544 | 1110 | 1880 | 2320 | 3590 | 7000 |
| 2026-04-11 20:15 | 2.03 | 606 | 33600 (2008) | 130 (1956) | 2030 | 260 | 352 | 460 | 544 | 1110 | 1880 | 2320 | 3590 | 7000 |
| 2026-04-11 19:15 | 2.04 | 611 | 33600 (2008) | 130 (1956) | 2030 | 260 | 352 | 460 | 544 | 1110 | 1880 | 2320 | 3590 | 7000 |
| 2026-04-11 18:15 | 2.05 | 616 | 33600 (2008) | 130 (1956) | 2030 | 260 | 352 | 460 | 544 | 1110 | 1880 | 2320 | 3590 | 7000 |
| 2026-04-11 17:15 | 2.06 | 621 | 33600 (2008) | 130 (1956) | 2030 | 260 | 352 | 460 | 544 | 1110 | 1880 | 2320 | 3590 | 7000 |
| 2026-04-11 16:15 | 2.06 | 621 | 33600 (2008) | 130 (1956) | 2030 | 260 | 352 | 460 | 544 | 1110 | 1880 | 2320 | 3590 | 7000 |
| 2026-04-11 15:15 | 2.05 | 616 | 33600 (2008) | 130 (1956) | 2030 | 260 | 352 | 460 | 544 | 1110 | 1880 | 2320 | 3590 | 7000 |
| 2026-04-11 14:15 | 2.06 | 621 | 33600 (2008) | 130 (1956) | 2030 | 260 | 352 | 460 | 544 | 1110 | 1880 | 2320 | 3590 | 7000 |
| 2026-04-11 13:15 | 2.06 | 621 | 33600 (2008) | 130 (1956) | 2030 | 260 | 352 | 460 | 544 | 1110 | 1880 | 2320 | 3590 | 7000 |
| 2026-04-11 12:15 | 2.07 | 626 | 33600 (2008) | 130 (1956) | 2030 | 260 | 352 | 460 | 544 | 1110 | 1880 | 2320 | 3590 | 7000 |
| 2026-04-11 11:15 | 2.06 | 621 | 33600 (2008) | 130 (1956) | 2030 | 260 | 352 | 460 | 544 | 1110 | 1880 | 2320 | 3590 | 7000 |
| 2026-04-11 10:15 | 2.06 | 621 | 33600 (2008) | 130 (1956) | 2030 | 260 | 352 | 460 | 544 | 1110 | 1880 | 2320 | 3590 | 7000 |
| 2026-04-11 09:15 | 2.06 | 621 | 33600 (2008) | 130 (1956) | 2030 | 260 | 352 | 460 | 544 | 1110 | 1880 | 2320 | 3590 | 7000 |
| 2026-04-11 08:15 | 2.07 | 626 | 33600 (2008) | 130 (1956) | 2030 | 260 | 352 | 460 | 544 | 1110 | 1880 | 2320 | 3590 | 7000 |
| 2026-04-11 07:15 | 2.07 | 626 | 33600 (2008) | 130 (1956) | 2030 | 260 | 352 | 460 | 544 | 1110 | 1880 | 2320 | 3590 | 7000 |
| 2026-04-11 06:15 | 2.07 | 626 | 33600 (2008) | 130 (1956) | 2030 | 260 | 352 | 460 | 544 | 1110 | 1880 | 2320 | 3590 | 7000 |
| 2026-04-11 05:15 | 2.06 | 621 | 33600 (2008) | 130 (1956) | 2030 | 260 | 352 | 460 | 544 | 1110 | 1880 | 2320 | 3590 | 7000 |
| 2026-04-11 04:15 | 2.08 | 631 | 33600 (2008) | 130 (1956) | 2030 | 260 | 352 | 460 | 544 | 1110 | 1880 | 2320 | 3590 | 7000 |
| 2026-04-11 03:15 | 2.09 | 636 | 33600 (2008) | 130 (1956) | 2030 | 260 | 352 | 460 | 544 | 1110 | 1880 | 2320 | 3590 | 7000 |
| 2026-04-11 02:15 | 2.08 | 631 | 33600 (2008) | 130 (1956) | 2030 | 260 | 352 | 460 | 544 | 1110 | 1880 | 2320 | 3590 | 7000 |
| 2026-04-11 01:15 | 2.09 | 636 | 33600 (2008) | 130 (1956) | 2030 | 260 | 352 | 460 | 544 | 1110 | 1880 | 2320 | 3590 | 7000 |
| 2026-04-11 00:15 | 2.09 | 636 | 33600 (2008) | 130 (1956) | 2030 | 260 | 352 | 460 | 544 | 1110 | 1880 | 2320 | 3590 | 7000 |
| 2026-04-10 23:15 | 2.09 | 636 | 33600 (2008) | 130 (1956) | 2030 | 260 | 352 | 460 | 544 | 1110 | 1880 | 2320 | 3590 | 7000 |
| 2026-04-10 22:15 | 2.10 | 641 | 15200 (1929) | 100 (1956) | 1800 | 258 | 368 | 459 | 551 | 1020 | 1620 | 2030 | 3180 | 9340 |
| 2026-04-10 21:15 | 2.12 | 651 | 15200 (1929) | 100 (1956) | 1800 | 258 | 368 | 459 | 551 | 1020 | 1620 | 2030 | 3180 | 9340 |
| 2026-04-10 20:15 | 2.11 | 646 | 15200 (1929) | 100 (1956) | 1800 | 258 | 368 | 459 | 551 | 1020 | 1620 | 2030 | 3180 | 9340 |
| 2026-04-10 19:15 | 2.14 | 661 | 15200 (1929) | 100 (1956) | 1800 | 258 | 368 | 459 | 551 | 1020 | 1620 | 2030 | 3180 | 9340 |
| 2026-04-10 18:15 | 2.14 | 661 | 15200 (1929) | 100 (1956) | 1800 | 258 | 368 | 459 | 551 | 1020 | 1620 | 2030 | 3180 | 9340 |
| 2026-04-10 17:15 | 2.16 | 671 | 15200 (1929) | 100 (1956) | 1800 | 258 | 368 | 459 | 551 | 1020 | 1620 | 2030 | 3180 | 9340 |
| 2026-04-10 16:15 | 2.15 | 666 | 15200 (1929) | 100 (1956) | 1800 | 258 | 368 | 459 | 551 | 1020 | 1620 | 2030 | 3180 | 9340 |
| 2026-04-10 15:15 | 2.15 | 666 | 15200 (1929) | 100 (1956) | 1800 | 258 | 368 | 459 | 551 | 1020 | 1620 | 2030 | 3180 | 9340 |
| 2026-04-10 14:15 | 2.17 | 677 | 15200 (1929) | 100 (1956) | 1800 | 258 | 368 | 459 | 551 | 1020 | 1620 | 2030 | 3180 | 9340 |
| 2026-04-10 13:15 | 2.18 | 682 | 15200 (1929) | 100 (1956) | 1800 | 258 | 368 | 459 | 551 | 1020 | 1620 | 2030 | 3180 | 9340 |
| 2026-04-10 12:15 | 2.18 | 682 | 15200 (1929) | 100 (1956) | 1800 | 258 | 368 | 459 | 551 | 1020 | 1620 | 2030 | 3180 | 9340 |
| 2026-04-10 11:15 | 2.18 | 682 | 15200 (1929) | 100 (1956) | 1800 | 258 | 368 | 459 | 551 | 1020 | 1620 | 2030 | 3180 | 9340 |
| 2026-04-10 10:15 | 2.17 | 677 | 15200 (1929) | 100 (1956) | 1800 | 258 | 368 | 459 | 551 | 1020 | 1620 | 2030 | 3180 | 9340 |
| 2026-04-10 09:15 | 2.18 | 682 | 15200 (1929) | 100 (1956) | 1800 | 258 | 368 | 459 | 551 | 1020 | 1620 | 2030 | 3180 | 9340 |
| 2026-04-10 08:15 | 2.19 | 687 | 15200 (1929) | 100 (1956) | 1800 | 258 | 368 | 459 | 551 | 1020 | 1620 | 2030 | 3180 | 9340 |
| 2026-04-10 07:15 | 2.19 | 687 | 15200 (1929) | 100 (1956) | 1800 | 258 | 368 | 459 | 551 | 1020 | 1620 | 2030 | 3180 | 9340 |
| 2026-04-10 06:15 | 2.21 | 697 | 15200 (1929) | 100 (1956) | 1800 | 258 | 368 | 459 | 551 | 1020 | 1620 | 2030 | 3180 | 9340 |
| 2026-04-10 05:15 | 2.21 | 697 | 15200 (1929) | 100 (1956) | 1800 | 258 | 368 | 459 | 551 | 1020 | 1620 | 2030 | 3180 | 9340 |
| 2026-04-10 04:15 | 2.23 | 708 | 15200 (1929) | 100 (1956) | 1800 | 258 | 368 | 459 | 551 | 1020 | 1620 | 2030 | 3180 | 9340 |
| 2026-04-10 03:15 | 2.23 | 708 | 15200 (1929) | 100 (1956) | 1800 | 258 | 368 | 459 | 551 | 1020 | 1620 | 2030 | 3180 | 9340 |
| 2026-04-10 02:15 | 2.24 | 713 | 15200 (1929) | 100 (1956) | 1800 | 258 | 368 | 459 | 551 | 1020 | 1620 | 2030 | 3180 | 9340 |
| 2026-04-10 01:15 | 2.24 | 713 | 15200 (1929) | 100 (1956) | 1800 | 258 | 368 | 459 | 551 | 1020 | 1620 | 2030 | 3180 | 9340 |
| 2026-04-10 00:15 | 2.25 | 718 | 15200 (1929) | 100 (1956) | 1800 | 258 | 368 | 459 | 551 | 1020 | 1620 | 2030 | 3180 | 9340 |
| 2026-04-09 23:15 | 2.25 | 718 | 15200 (1929) | 100 (1956) | 1800 | 258 | 368 | 459 | 551 | 1020 | 1620 | 2030 | 3180 | 9340 |
A total of 730 rows are displayed for years 1929 through 2025.